Observation data for Stamford on 02/12/2018      Previous  Date  Next       Current Mesonet Observations  Soil Data  Daily Summary Page  Observations in Plain Language
KST2 120600Z 13004KT M04/M13 A3031 RMK A01 T10401132  RH  049%=      5-min Rain = 0
KST2 120601Z 13004KT M04/M13 A3031 RMK A01 T10401133  RH  048%=      5-min Rain = 0
KST2 120602Z 13005KT M04/M13 A3031 RMK A01 T10401134  RH  048%=      5-min Rain = 0
KST2 120603Z 14004KT M04/M13 A3031 RMK A01 T10411134  RH  048%=      5-min Rain = 0
KST2 120604Z 13004KT M04/M13 A3031 RMK A01 T10411132  RH  049%=      5-min Rain = 0
KST2 120605Z 13004KT M04/M13 A3031 RMK A01 T10411132  RH  049%=      5-min Rain = 0
KST2 120606Z 13003KT M04/M13 A3031 RMK A01 T10411133  RH  049%=      5-min Rain = 0
KST2 120607Z 12003KT M04/M13 A3031 RMK A01 T10401131  RH  049%=      5-min Rain = 0
KST2 120608Z 12003KT M04/M13 A3031 RMK A01 T10401129  RH  050%=      5-min Rain = 0
KST2 120609Z 12003KT M04/M13 A3031 RMK A01 T10381127  RH  050%=      5-min Rain = 0
KST2 120610Z 12003KT M04/M13 A3031 RMK A01 T10371125  RH  050%=      5-min Rain = 0
KST2 120611Z 12003KT M04/M13 A3031 RMK A01 T10371126  RH  050%=      5-min Rain = 0
KST2 120612Z 12003KT M04/M13 A3031 RMK A01 T10361127  RH  049%=      5-min Rain = 0
KST2 120613Z 12003KT M04/M13 A3031 RMK A01 T10361128  RH  049%=      5-min Rain = 0
KST2 120614Z 12003KT M04/M13 A3031 RMK A01 T10371128  RH  049%=      5-min Rain = 0
KST2 120615Z 12002KT M04/M13 A3031 RMK A01 T10371128  RH  049%=      5-min Rain = 0
KST2 120616Z 12002KT M04/M13 A3031 RMK A01 T10371127  RH  050%=      5-min Rain = 0
KST2 120617Z 11002KT M04/M13 A3031 RMK A01 T10371126  RH  050%=      5-min Rain = 0
KST2 120618Z 11002KT M04/M13 A3031 RMK A01 T10371126  RH  050%=      5-min Rain = 0
KST2 120619Z 11002KT M04/M13 A3031 RMK A01 T10371127  RH  050%=      5-min Rain = 0
KST2 120620Z 11002KT M04/M13 A3031 RMK A01 T10371129  RH  049%=      5-min Rain = 0
KST2 120621Z 11002KT M04/M13 A3031 RMK A01 T10381130  RH  049%=      5-min Rain = 0
KST2 120622Z 11002KT M04/M13 A3031 RMK A01 T10391131  RH  049%=      5-min Rain = 0
KST2 120623Z 11003KT M04/M13 A3031 RMK A01 T10391131  RH  049%=      5-min Rain = 0
KST2 120624Z 10003KT M04/M13 A3031 RMK A01 T10401131  RH  049%=      5-min Rain = 0
KST2 120625Z 11003KT M04/M13 A3031 RMK A01 T10401130  RH  050%=      5-min Rain = 0
KST2 120626Z 11003KT M04/M13 A3031 RMK A01 T10401128  RH  050%=      5-min Rain = 0
KST2 120627Z 11003KT M04/M13 A3031 RMK A01 T10401127  RH  051%=      5-min Rain = 0
KST2 120628Z 12003KT M04/M13 A3031 RMK A01 T10391125  RH  051%=      5-min Rain = 0
KST2 120629Z 12003KT M04/M12 A3031 RMK A01 T10381124  RH  051%=      5-min Rain = 0
KST2 120630Z 12003KT M04/M12 A3031 RMK A01 T10371124  RH  051%=      5-min Rain = 0
KST2 120631Z 12003KT M04/M12 A3031 RMK A01 T10371124  RH  051%=      5-min Rain = 0
KST2 120632Z 12003KT M04/M12 A3031 RMK A01 T10371124  RH  051%=      5-min Rain = 0
KST2 120633Z 13003KT M04/M12 A3031 RMK A01 T10361124  RH  051%=      5-min Rain = 0
KST2 120634Z 13002KT M04/M12 A3031 RMK A01 T10371124  RH  051%=      5-min Rain = 0
KST2 120635Z 13002KT M04/M13 A3031 RMK A01 T10371125  RH  050%=      5-min Rain = 0
KST2 120636Z 14002KT M04/M13 A3031 RMK A01 T10371127  RH  050%=      5-min Rain = 0
KST2 120637Z 14002KT M04/M13 A3031 RMK A01 T10371129  RH  049%=      5-min Rain = 0
KST2 120638Z 13002KT M04/M13 A3031 RMK A01 T10381128  RH  050%=      5-min Rain = 0
KST2 120639Z 13002KT M04/M13 A3031 RMK A01 T10381128  RH  050%=      5-min Rain = 0
KST2 120640Z 13002KT M04/M13 A3031 RMK A01 T10381127  RH  050%=      5-min Rain = 0
KST2 120641Z 13002KT M04/M13 A3031 RMK A01 T10391128  RH  050%=      5-min Rain = 0
KST2 120642Z 13002KT M04/M13 A3031 RMK A01 T10391128  RH  050%=      5-min Rain = 0
KST2 120643Z 13002KT M04/M13 A3031 RMK A01 T10391128  RH  050%=      5-min Rain = 0
KST2 120644Z 12002KT M04/M13 A3031 RMK A01 T10401128  RH  050%=      5-min Rain = 0
KST2 120645Z 11002KT M04/M13 A3031 RMK A01 T10401127  RH  051%=      5-min Rain = 0
KST2 120646Z 11002KT M04/M13 A3031 RMK A01 T10401126  RH  051%=      5-min Rain = 0
KST2 120647Z 10002KT M04/M13 A3031 RMK A01 T10401127  RH  051%=      5-min Rain = 0
KST2 120648Z 09002KT M04/M13 A3031 RMK A01 T10401127  RH  051%=      5-min Rain = 0
KST2 120649Z 09002KT M04/M13 A3031 RMK A01 T10411126  RH  051%=      5-min Rain = 0
KST2 120650Z 09002KT M04/M13 A3031 RMK A01 T10411126  RH  052%=      5-min Rain = 0
KST2 120651Z 09002KT M04/M13 A3031 RMK A01 T10411126  RH  052%=      5-min Rain = 0
KST2 120652Z 09002KT M04/M13 A3031 RMK A01 T10421126  RH  052%=      5-min Rain = 0
KST2 120653Z 09002KT M04/M13 A3031 RMK A01 T10421126  RH  052%=      5-min Rain = 0
KST2 120654Z 09002KT M04/M13 A3031 RMK A01 T10421126  RH  052%=      5-min Rain = 0
KST2 120655Z 09002KT M04/M13 A3031 RMK A01 T10421126  RH  052%=      5-min Rain = 0
KST2 120656Z 09002KT M04/M13 A3031 RMK A01 T10421125  RH  052%=      5-min Rain = 0
KST2 120657Z 09002KT M04/M13 A3031 RMK A01 T10421126  RH  052%=      5-min Rain = 0
KST2 120658Z 10002KT M04/M13 A3031 RMK A01 T10431126  RH  052%=      5-min Rain = 0
KST2 120659Z 10002KT M04/M13 A3032 RMK A01 T10431126  RH  052%=      5-min Rain = 0
KST2 120700Z 11002KT M04/M13 A3032 RMK A01 T10421127  RH  052%=      5-min Rain = 0
KST2 120701Z 12002KT M04/M13 A3032 RMK A01 T10421128  RH  051%=      5-min Rain = 0
KST2 120702Z 12002KT M04/M13 A3032 RMK A01 T10421128  RH  051%=      5-min Rain = 0
KST2 120703Z 13002KT M04/M13 A3032 RMK A01 T10431126  RH  052%=      5-min Rain = 0
KST2 120704Z 13002KT M04/M12 A3032 RMK A01 T10421124  RH  053%=      5-min Rain = 0
KST2 120705Z 13003KT M04/M12 A3032 RMK A01 T10411123  RH  053%=      5-min Rain = 0
KST2 120706Z 13002KT M04/M12 A3032 RMK A01 T10411123  RH  053%=      5-min Rain = 0
KST2 120707Z 13002KT M04/M12 A3032 RMK A01 T10401124  RH  052%=      5-min Rain = 0
KST2 120708Z 14002KT M04/M13 A3032 RMK A01 T10411125  RH  052%=      5-min Rain = 0
KST2 120709Z 14002KT M04/M13 A3032 RMK A01 T10411125  RH  052%=      5-min Rain = 0
KST2 120710Z 14002KT M04/M13 A3032 RMK A01 T10411126  RH  052%=      5-min Rain = 0
KST2 120711Z 14002KT M04/M13 A3032 RMK A01 T10411126  RH  051%=      5-min Rain = 0
KST2 120712Z 14002KT M04/M13 A3032 RMK A01 T10411126  RH  052%=      5-min Rain = 0
KST2 120713Z 15002KT M04/M13 A3032 RMK A01 T10411126  RH  052%=      5-min Rain = 0
KST2 120714Z 15002KT M04/M13 A3032 RMK A01 T10411126  RH  052%=      5-min Rain = 0
KST2 120715Z 15002KT M04/M13 A3032 RMK A01 T10411126  RH  052%=      5-min Rain = 0
KST2 120716Z 15002KT M04/M13 A3032 RMK A01 T10411126  RH  052%=      5-min Rain = 0
KST2 120717Z 15002KT M04/M13 A3032 RMK A01 T10411126  RH  052%=      5-min Rain = 0
KST2 120718Z 15002KT M04/M13 A3032 RMK A01 T10421127  RH  051%=      5-min Rain = 0
KST2 120719Z 15003KT M04/M13 A3032 RMK A01 T10421128  RH  051%=      5-min Rain = 0
KST2 120720Z 15002KT M04/M13 A3032 RMK A01 T10421127  RH  052%=      5-min Rain = 0
KST2 120721Z 15002KT M04/M13 A3032 RMK A01 T10421126  RH  052%=      5-min Rain = 0
KST2 120722Z 15002KT M04/M13 A3032 RMK A01 T10421125  RH  052%=      5-min Rain = 0
KST2 120723Z 16002KT M04/M13 A3032 RMK A01 T10421126  RH  052%=      5-min Rain = 0
KST2 120724Z 16002KT M04/M13 A3032 RMK A01 T10421126  RH  052%=      5-min Rain = 0
KST2 120725Z 16002KT M04/M13 A3032 RMK A01 T10421126  RH  052%=      5-min Rain = 0
KST2 120726Z 16002KT M04/M13 A3033 RMK A01 T10421126  RH  052%=      5-min Rain = 0
KST2 120727Z 16002KT M04/M13 A3033 RMK A01 T10421126  RH  052%=      5-min Rain = 0
KST2 120728Z 16002KT M04/M13 A3033 RMK A01 T10431127  RH  052%=      5-min Rain = 0
KST2 120729Z 16002KT M04/M13 A3033 RMK A01 T10431128  RH  052%=      5-min Rain = 0
KST2 120730Z 16002KT M04/M13 A3033 RMK A01 T10441128  RH  052%=      5-min Rain = 0
KST2 120731Z 16002KT M04/M13 A3033 RMK A01 T10441128  RH  052%=      5-min Rain = 0
KST2 120732Z 16002KT M04/M13 A3033 RMK A01 T10441129  RH  052%=      5-min Rain = 0
KST2 120733Z 17002KT M04/M13 A3033 RMK A01 T10441129  RH  052%=      5-min Rain = 0
KST2 120734Z 17002KT M04/M13 A3033 RMK A01 T10441129  RH  052%=      5-min Rain = 0
KST2 120735Z 17002KT M04/M13 A3033 RMK A01 T10441129  RH  052%=      5-min Rain = 0
KST2 120736Z 18001KT M04/M13 A3033 RMK A01 T10441128  RH  052%=      5-min Rain = 0
KST2 120737Z 18001KT M04/M13 A3033 RMK A01 T10441129  RH  052%=      5-min Rain = 0
KST2 120738Z 18001KT M04/M13 A3033 RMK A01 T10441128  RH  052%=      5-min Rain = 0
KST2 120739Z 18001KT M04/M13 A3033 RMK A01 T10441129  RH  052%=      5-min Rain = 0
KST2 120740Z 18001KT M04/M13 A3033 RMK A01 T10441130  RH  051%=      5-min Rain = 0
KST2 120741Z 18001KT M05/M13 A3033 RMK A01 T10451130  RH  052%=      5-min Rain = 0
KST2 120742Z 18001KT M05/M13 A3033 RMK A01 T10451128  RH  052%=      5-min Rain = 0
KST2 120743Z 18001KT M05/M13 A3033 RMK A01 T10451128  RH  052%=      5-min Rain = 0
KST2 120744Z 18001KT M05/M13 A3033 RMK A01 T10451128  RH  052%=      5-min Rain = 0
KST2 120745Z 18001KT M05/M13 A3033 RMK A01 T10451129  RH  052%=      5-min Rain = 0
KST2 120746Z 18001KT M05/M13 A3034 RMK A01 T10451130  RH  052%=      5-min Rain = 0
KST2 120747Z 20001KT M05/M13 A3034 RMK A01 T10451130  RH  052%=      5-min Rain = 0
KST2 120748Z 20001KT M05/M13 A3033 RMK A01 T10451129  RH  052%=      5-min Rain = 0
KST2 120749Z 20001KT M04/M13 A3033 RMK A01 T10441127  RH  052%=      5-min Rain = 0
KST2 120750Z 20000KT M04/M13 A3033 RMK A01 T10441126  RH  053%=      5-min Rain = 0
KST2 120751Z 00000KT M04/M13 A3033 RMK A01 T10431125  RH  053%=      5-min Rain = 0
KST2 120752Z 00000KT M04/M13 A3033 RMK A01 T10431126  RH  052%=      5-min Rain = 0
KST2 120753Z 00000KT M04/M13 A3033 RMK A01 T10421125  RH  053%=      5-min Rain = 0
KST2 120754Z 00000KT M04/M13 A3033 RMK A01 T10421125  RH  053%=      5-min Rain = 0
KST2 120755Z 00000KT M04/M12 A3033 RMK A01 T10421124  RH  053%=      5-min Rain = 0
KST2 120756Z 00000KT M04/M12 A3033 RMK A01 T10411124  RH  053%=      5-min Rain = 0
KST2 120757Z 00000KT M04/M12 A3033 RMK A01 T10411123  RH  053%=      5-min Rain = 0
KST2 120758Z 00000KT M04/M12 A3033 RMK A01 T10411123  RH  053%=      5-min Rain = 0
KST2 120759Z 00000KT M04/M12 A3033 RMK A01 T10411124  RH  052%=      5-min Rain = 0
KST2 120800Z 00000KT M04/M12 A3033 RMK A01 T10411124  RH  052%=      5-min Rain = 0
KST2 120801Z 00000KT M04/M12 A3033 RMK A01 T10411124  RH  052%=      5-min Rain = 0
KST2 120802Z 00000KT M04/M12 A3034 RMK A01 T10411124  RH  052%=      5-min Rain = 0
KST2 120803Z 00000KT M04/M12 A3034 RMK A01 T10411124  RH  052%=      5-min Rain = 0
KST2 120804Z 00000KT M04/M13 A3034 RMK A01 T10411125  RH  052%=      5-min Rain = 0
KST2 120805Z 00000KT M04/M13 A3034 RMK A01 T10421125  RH  052%=      5-min Rain = 0
KST2 120806Z 00000KT M04/M13 A3034 RMK A01 T10421125  RH  053%=      5-min Rain = 0
KST2 120807Z 00000KT M04/M13 A3034 RMK A01 T10421125  RH  053%=      5-min Rain = 0
KST2 120808Z 00000KT M04/M13 A3034 RMK A01 T10431125  RH  053%=      5-min Rain = 0
KST2 120809Z 00000KT M04/M13 A3034 RMK A01 T10431125  RH  053%=      5-min Rain = 0
KST2 120810Z 00000KT M04/M13 A3034 RMK A01 T10441131  RH  051%=      5-min Rain = 0
KST2 120811Z 00000KT M05/M14 A3034 RMK A01 T10481141  RH  048%=      5-min Rain = 0
KST2 120812Z 00000KT M05/M15 A3034 RMK A01 T10521148  RH  047%=      5-min Rain = 0
KST2 120813Z 00000KT M06/M15 A3034 RMK A01 T10551148  RH  048%=      5-min Rain = 0
KST2 120814Z 00000KT M06/M15 A3034 RMK A01 T10571146  RH  049%=      5-min Rain = 0
KST2 120815Z 00000KT M06/M14 A3034 RMK A01 T10571142  RH  051%=      5-min Rain = 0
KST2 120816Z 20000KT M06/M13 A3034 RMK A01 T10551133  RH  054%=      5-min Rain = 0
KST2 120817Z 20001KT M05/M13 A3034 RMK A01 T10521128  RH  055%=      5-min Rain = 0
KST2 120818Z 20001KT M05/M13 A3034 RMK A01 T10501126  RH  055%=      5-min Rain = 0
KST2 120819Z 20001KT M05/M12 A3034 RMK A01 T10481124  RH  055%=      5-min Rain = 0
KST2 120820Z 20001KT M05/M12 A3034 RMK A01 T10461123  RH  055%=      5-min Rain = 0
KST2 120821Z 20001KT M04/M12 A3034 RMK A01 T10441123  RH  054%=      5-min Rain = 0
KST2 120822Z 20000KT M04/M12 A3034 RMK A01 T10431123  RH  054%=      5-min Rain = 0
KST2 120823Z 20000KT M04/M12 A3034 RMK A01 T10421123  RH  053%=      5-min Rain = 0
KST2 120824Z 00000KT M04/M12 A3034 RMK A01 T10421123  RH  053%=      5-min Rain = 0
KST2 120825Z 00000KT M04/M12 A3034 RMK A01 T10411123  RH  053%=      5-min Rain = 0
KST2 120826Z 00000KT M04/M12 A3034 RMK A01 T10411124  RH  053%=      5-min Rain = 0
KST2 120827Z 00000KT M04/M12 A3034 RMK A01 T10411124  RH  052%=      5-min Rain = 0
KST2 120828Z 00000KT M04/M13 A3034 RMK A01 T10431134  RH  049%=      5-min Rain = 0
KST2 120829Z 00000KT M05/M13 A3034 RMK A01 T10451133  RH  050%=      5-min Rain = 0
KST2 120830Z 00000KT M05/M13 A3034 RMK A01 T10461127  RH  053%=      5-min Rain = 0
KST2 120831Z 00000KT M04/M12 A3034 RMK A01 T10441124  RH  054%=      5-min Rain = 0
KST2 120832Z 00000KT M04/M12 A3034 RMK A01 T10431122  RH  054%=      5-min Rain = 0
KST2 120833Z 00000KT M04/M12 A3034 RMK A01 T10431122  RH  054%=      5-min Rain = 0
KST2 120834Z 00000KT M04/M12 A3034 RMK A01 T10421122  RH  054%=      5-min Rain = 0
KST2 120835Z 00000KT M04/M12 A3034 RMK A01 T10421122  RH  054%=      5-min Rain = 0
KST2 120836Z 00000KT M04/M12 A3034 RMK A01 T10411122  RH  053%=      5-min Rain = 0
KST2 120837Z 00000KT M04/M12 A3034 RMK A01 T10411122  RH  053%=      5-min Rain = 0
KST2 120838Z 00000KT M04/M12 A3034 RMK A01 T10411122  RH  053%=      5-min Rain = 0
KST2 120839Z 00000KT M04/M12 A3034 RMK A01 T10411121  RH  054%=      5-min Rain = 0
KST2 120840Z 00000KT M04/M12 A3034 RMK A01 T10411121  RH  053%=      5-min Rain = 0
KST2 120841Z 00000KT M04/M12 A3034 RMK A01 T10411122  RH  053%=      5-min Rain = 0
KST2 120842Z 00000KT M04/M12 A3034 RMK A01 T10411122  RH  053%=      5-min Rain = 0
KST2 120843Z 00000KT M04/M12 A3034 RMK A01 T10411121  RH  053%=      5-min Rain = 0
KST2 120844Z 00000KT M04/M12 A3034 RMK A01 T10411121  RH  053%=      5-min Rain = 0
KST2 120845Z 00000KT M04/M12 A3034 RMK A01 T10411121  RH  053%=      5-min Rain = 0
KST2 120846Z 00000KT M04/M12 A3034 RMK A01 T10411121  RH  053%=      5-min Rain = 0
KST2 120847Z 00000KT M04/M12 A3034 RMK A01 T10411122  RH  053%=      5-min Rain = 0
KST2 120848Z 00000KT M04/M12 A3034 RMK A01 T10411122  RH  053%=      5-min Rain = 0
KST2 120849Z 00000KT M04/M12 A3034 RMK A01 T10411123  RH  053%=      5-min Rain = 0
KST2 120850Z 00000KT M04/M12 A3034 RMK A01 T10421123  RH  053%=      5-min Rain = 0
KST2 120851Z 00000KT M04/M12 A3034 RMK A01 T10431123  RH  053%=      5-min Rain = 0
KST2 120852Z 00000KT M04/M12 A3034 RMK A01 T10431123  RH  054%=      5-min Rain = 0
KST2 120853Z 00000KT M04/M13 A3034 RMK A01 T10431126  RH  053%=      5-min Rain = 0
KST2 120854Z 00000KT M05/M13 A3034 RMK A01 T10451129  RH  052%=      5-min Rain = 0
KST2 120855Z 00000KT M05/M14 A3034 RMK A01 T10471138  RH  049%=      5-min Rain = 0
KST2 120856Z 00000KT M05/M15 A3034 RMK A01 T10521149  RH  047%=      5-min Rain = 0
KST2 120857Z 00000KT M06/M15 A3034 RMK A01 T10551152  RH  046%=      5-min Rain = 0
KST2 120858Z 00000KT M06/M15 A3034 RMK A01 T10571152  RH  047%=      5-min Rain = 0
KST2 120859Z 00000KT M06/M14 A3034 RMK A01 T10571139  RH  053%=      5-min Rain = 0
KST2 120900Z 00000KT M06/M13 A3034 RMK A01 T10551131  RH  055%=      5-min Rain = 0
KST2 120901Z 00000KT M05/M13 A3034 RMK A01 T10531130  RH  055%=      5-min Rain = 0
KST2 120902Z 00000KT M05/M13 A3034 RMK A01 T10511127  RH  055%=      5-min Rain = 0
KST2 120903Z 00000KT M05/M14 A3034 RMK A01 T10511136  RH  051%=      5-min Rain = 0
KST2 120904Z 00000KT M05/M14 A3034 RMK A01 T10531143  RH  049%=      5-min Rain = 0
KST2 120905Z 00000KT M06/M15 A3034 RMK A01 T10551152  RH  047%=      5-min Rain = 0
KST2 120906Z 00000KT M06/M16 A3034 RMK A01 T10581155  RH  046%=      5-min Rain = 0
KST2 120907Z 00000KT M06/M16 A3034 RMK A01 T10601156  RH  047%=      5-min Rain = 0
KST2 120908Z 00000KT M06/M16 A3034 RMK A01 T10611155  RH  048%=      5-min Rain = 0
KST2 120909Z 00000KT M06/M16 A3034 RMK A01 T10621155  RH  048%=      5-min Rain = 0
KST2 120910Z 00000KT M06/M15 A3034 RMK A01 T10631153  RH  049%=      5-min Rain = 0
KST2 120911Z 00000KT M06/M15 A3034 RMK A01 T10631152  RH  049%=      5-min Rain = 0
KST2 120912Z 00000KT M06/M15 A3034 RMK A01 T10631151  RH  050%=      5-min Rain = 0
KST2 120913Z 00000KT M06/M15 A3034 RMK A01 T10631150  RH  050%=      5-min Rain = 0
KST2 120914Z 00000KT M06/M15 A3034 RMK A01 T10631150  RH  050%=      5-min Rain = 0
KST2 120915Z 00000KT M06/M15 A3035 RMK A01 T10631149  RH  051%=      5-min Rain = 0
KST2 120916Z 00000KT M06/M15 A3035 RMK A01 T10631149  RH  051%=      5-min Rain = 0
KST2 120917Z 00000KT M06/M15 A3035 RMK A01 T10631148  RH  051%=      5-min Rain = 0
KST2 120918Z 00000KT M06/M15 A3035 RMK A01 T10631148  RH  051%=      5-min Rain = 0
KST2 120919Z 00000KT M06/M15 A3035 RMK A01 T10631148  RH  051%=      5-min Rain = 0
KST2 120920Z 00000KT M06/M15 A3035 RMK A01 T10631147  RH  051%=      5-min Rain = 0
KST2 120921Z 00000KT M06/M15 A3035 RMK A01 T10621145  RH  052%=      5-min Rain = 0
KST2 120922Z 00000KT M06/M15 A3035 RMK A01 T10621147  RH  051%=      5-min Rain = 0
KST2 120923Z 31000KT M06/M15 A3035 RMK A01 T10621150  RH  050%=      5-min Rain = 0
KST2 120924Z 31001KT M06/M15 A3035 RMK A01 T10631152  RH  049%=      5-min Rain = 0
KST2 120925Z 32001KT M06/M15 A3035 RMK A01 T10641153  RH  049%=      5-min Rain = 0
KST2 120926Z 33002KT M06/M15 A3035 RMK A01 T10641154  RH  049%=      5-min Rain = 0
KST2 120927Z 33002KT M07/M16 A3034 RMK A01 T10651155  RH  049%=      5-min Rain = 0
KST2 120928Z 33002KT M07/M16 A3034 RMK A01 T10651155  RH  049%=      5-min Rain = 0
KST2 120929Z 34003KT M07/M16 A3034 RMK A01 T10651156  RH  049%=      5-min Rain = 0
KST2 120930Z 34003KT M07/M16 A3034 RMK A01 T10661156  RH  049%=      5-min Rain = 0
KST2 120931Z 34003KT M07/M16 A3034 RMK A01 T10661156  RH  049%=      5-min Rain = 0
KST2 120932Z 33003KT M07/M16 A3034 RMK A01 T10661156  RH  049%=      5-min Rain = 0
KST2 120933Z 33003KT M07/M16 A3035 RMK A01 T10661155  RH  049%=      5-min Rain = 0
KST2 120934Z 33003KT M07/M15 A3035 RMK A01 T10651154  RH  049%=      5-min Rain = 0
KST2 120935Z 32003KT M07/M15 A3035 RMK A01 T10651153  RH  050%=      5-min Rain = 0
KST2 120936Z 32003KT M06/M15 A3035 RMK A01 T10641151  RH  050%=      5-min Rain = 0
KST2 120937Z 33003KT M06/M15 A3035 RMK A01 T10641151  RH  050%=      5-min Rain = 0
KST2 120938Z 33003KT M06/M15 A3035 RMK A01 T10641151  RH  050%=      5-min Rain = 0
KST2 120939Z 33003KT M06/M15 A3035 RMK A01 T10641151  RH  050%=      5-min Rain = 0
KST2 120940Z 33003KT M06/M15 A3035 RMK A01 T10631151  RH  050%=      5-min Rain = 0
KST2 120941Z 33003KT M06/M15 A3035 RMK A01 T10641151  RH  050%=      5-min Rain = 0
KST2 120942Z 33003KT M06/M15 A3035 RMK A01 T10641151  RH  050%=      5-min Rain = 0
KST2 120943Z 33003KT M06/M15 A3035 RMK A01 T10641151  RH  050%=      5-min Rain = 0
KST2 120944Z 33003KT M06/M15 A3035 RMK A01 T10641151  RH  050%=      5-min Rain = 0
KST2 120945Z 33003KT M06/M15 A3035 RMK A01 T10631151  RH  050%=      5-min Rain = 0
KST2 120946Z 33003KT M06/M15 A3035 RMK A01 T10641151  RH  050%=      5-min Rain = 0
KST2 120947Z 33002KT M06/M15 A3035 RMK A01 T10641152  RH  050%=      5-min Rain = 0
KST2 120948Z 33002KT M06/M15 A3035 RMK A01 T10631151  RH  050%=      5-min Rain = 0
KST2 120949Z 33002KT M06/M15 A3035 RMK A01 T10631151  RH  050%=      5-min Rain = 0
KST2 120950Z 33002KT M06/M15 A3035 RMK A01 T10631150  RH  050%=      5-min Rain = 0
KST2 120951Z 33002KT M06/M15 A3035 RMK A01 T10631149  RH  050%=      5-min Rain = 0
KST2 120952Z 33002KT M06/M15 A3035 RMK A01 T10621148  RH  051%=      5-min Rain = 0
KST2 120953Z 33002KT M06/M15 A3035 RMK A01 T10621148  RH  050%=      5-min Rain = 0
KST2 120954Z 33002KT M06/M15 A3035 RMK A01 T10621149  RH  050%=      5-min Rain = 0
KST2 120955Z 33002KT M06/M15 A3036 RMK A01 T10621148  RH  050%=      5-min Rain = 0
KST2 120956Z 34002KT M06/M15 A3036 RMK A01 T10611145  RH  052%=      5-min Rain = 0
KST2 120957Z 34003KT M06/M14 A3036 RMK A01 T10601143  RH  052%=      5-min Rain = 0
KST2 120958Z 34003KT M06/M14 A3036 RMK A01 T10601141  RH  052%=      5-min Rain = 0
KST2 120959Z 35003KT M06/M14 A3036 RMK A01 T10591140  RH  053%=      5-min Rain = 0
KST2 121000Z 35003KT M06/M14 A3036 RMK A01 T10591141  RH  052%=      5-min Rain = 0
KST2 121001Z 36002KT M06/M14 A3035 RMK A01 T10581141  RH  052%=      5-min Rain = 0
KST2 121002Z 00002KT M06/M14 A3035 RMK A01 T10581142  RH  052%=      5-min Rain = 0
KST2 121003Z 36002KT M06/M15 A3035 RMK A01 T10581145  RH  050%=      5-min Rain = 0
KST2 121004Z 35003KT M06/M14 A3036 RMK A01 T10591144  RH  051%=      5-min Rain = 0
KST2 121005Z 35003KT M06/M14 A3036 RMK A01 T10591143  RH  051%=      5-min Rain = 0
KST2 121006Z 35003KT M06/M14 A3036 RMK A01 T10591144  RH  051%=      5-min Rain = 0
KST2 121007Z 35003KT M06/M14 A3036 RMK A01 T10591143  RH  052%=      5-min Rain = 0
KST2 121008Z 35003KT M06/M14 A3036 RMK A01 T10581142  RH  052%=      5-min Rain = 0
KST2 121009Z 00003KT M06/M14 A3036 RMK A01 T10591143  RH  051%=      5-min Rain = 0
KST2 121010Z 00003KT M06/M14 A3036 RMK A01 T10591144  RH  051%=      5-min Rain = 0
KST2 121011Z 35003KT M06/M14 A3036 RMK A01 T10591144  RH  051%=      5-min Rain = 0
KST2 121012Z 35003KT M06/M14 A3036 RMK A01 T10591144  RH  051%=      5-min Rain = 0
KST2 121013Z 35003KT M06/M14 A3036 RMK A01 T10591143  RH  051%=      5-min Rain = 0
KST2 121014Z 35003KT M06/M14 A3036 RMK A01 T10591142  RH  052%=      5-min Rain = 0
KST2 121015Z 35003KT M06/M14 A3036 RMK A01 T10591143  RH  052%=      5-min Rain = 0
KST2 121016Z 36002KT M06/M15 A3036 RMK A01 T10591145  RH  051%=      5-min Rain = 0
KST2 121017Z 00002KT M06/M15 A3036 RMK A01 T10591147  RH  050%=      5-min Rain = 0
KST2 121018Z 00002KT M06/M15 A3036 RMK A01 T10601149  RH  049%=      5-min Rain = 0
KST2 121019Z 01002KT M06/M15 A3036 RMK A01 T10611151  RH  049%=      5-min Rain = 0
KST2 121020Z 02002KT M06/M15 A3036 RMK A01 T10621151  RH  049%=      5-min Rain = 0
KST2 121021Z 02002KT M06/M15 A3036 RMK A01 T10621150  RH  050%=      5-min Rain = 0
KST2 121022Z 02002KT M06/M15 A3036 RMK A01 T10631152  RH  049%=      5-min Rain = 0
KST2 121023Z 02002KT M06/M16 A3036 RMK A01 T10641156  RH  048%=      5-min Rain = 0
KST2 121024Z 02002KT M07/M16 A3036 RMK A01 T10651157  RH  048%=      5-min Rain = 0
KST2 121025Z 01002KT M07/M16 A3036 RMK A01 T10661157  RH  048%=      5-min Rain = 0
KST2 121026Z 01002KT M07/M16 A3036 RMK A01 T10661156  RH  049%=      5-min Rain = 0
KST2 121027Z 01002KT M07/M15 A3036 RMK A01 T10661154  RH  050%=      5-min Rain = 0
KST2 121028Z 01002KT M07/M15 A3036 RMK A01 T10661153  RH  050%=      5-min Rain = 0
KST2 121029Z 01002KT M07/M15 A3036 RMK A01 T10661151  RH  051%=      5-min Rain = 0
KST2 121030Z 01001KT M07/M15 A3036 RMK A01 T10661150  RH  051%=      5-min Rain = 0
KST2 121031Z 01001KT M07/M15 A3036 RMK A01 T10651149  RH  051%=      5-min Rain = 0
KST2 121032Z 01001KT M07/M15 A3036 RMK A01 T10651149  RH  051%=      5-min Rain = 0
KST2 121033Z 01001KT M07/M15 A3036 RMK A01 T10651149  RH  051%=      5-min Rain = 0
KST2 121034Z 01002KT M07/M15 A3036 RMK A01 T10651149  RH  051%=      5-min Rain = 0
KST2 121035Z 01002KT M07/M15 A3036 RMK A01 T10651151  RH  051%=      5-min Rain = 0
KST2 121036Z 00002KT M06/M15 A3036 RMK A01 T10641149  RH  051%=      5-min Rain = 0
KST2 121037Z 36002KT M06/M15 A3036 RMK A01 T10631147  RH  052%=      5-min Rain = 0
KST2 121038Z 35002KT M06/M15 A3036 RMK A01 T10631147  RH  051%=      5-min Rain = 0
KST2 121039Z 35002KT M06/M15 A3036 RMK A01 T10631147  RH  051%=      5-min Rain = 0
KST2 121040Z 35002KT M06/M15 A3037 RMK A01 T10621146  RH  051%=      5-min Rain = 0
KST2 121041Z 35002KT M06/M15 A3037 RMK A01 T10621146  RH  051%=      5-min Rain = 0
KST2 121042Z 34002KT M06/M15 A3037 RMK A01 T10621146  RH  051%=      5-min Rain = 0
KST2 121043Z 34002KT M06/M15 A3037 RMK A01 T10621145  RH  052%=      5-min Rain = 0
KST2 121044Z 34002KT M06/M15 A3037 RMK A01 T10621147  RH  051%=      5-min Rain = 0
KST2 121045Z 34002KT M06/M15 A3036 RMK A01 T10621150  RH  050%=      5-min Rain = 0
KST2 121046Z 35002KT M06/M15 A3036 RMK A01 T10631148  RH  051%=      5-min Rain = 0
KST2 121047Z 35002KT M06/M15 A3036 RMK A01 T10631147  RH  051%=      5-min Rain = 0
KST2 121048Z 35002KT M06/M15 A3036 RMK A01 T10631147  RH  051%=      5-min Rain = 0
KST2 121049Z 35002KT M06/M15 A3036 RMK A01 T10641147  RH  052%=      5-min Rain = 0
KST2 121050Z 00002KT M06/M15 A3036 RMK A01 T10641146  RH  052%=      5-min Rain = 0
KST2 121051Z 00003KT M06/M15 A3036 RMK A01 T10631145  RH  053%=      5-min Rain = 0
KST2 121052Z 00003KT M06/M15 A3036 RMK A01 T10641145  RH  053%=      5-min Rain = 0
KST2 121053Z 00003KT M06/M14 A3036 RMK A01 T10641144  RH  053%=      5-min Rain = 0
KST2 121054Z 00003KT M07/M14 A3036 RMK A01 T10651144  RH  053%=      5-min Rain = 0
KST2 121055Z 00003KT M07/M14 A3036 RMK A01 T10651144  RH  053%=      5-min Rain = 0
KST2 121056Z 00003KT M07/M14 A3036 RMK A01 T10651142  RH  054%=      5-min Rain = 0
KST2 121057Z 00003KT M07/M14 A3036 RMK A01 T10661143  RH  054%=      5-min Rain = 0
KST2 121058Z 00004KT M07/M15 A3036 RMK A01 T10661145  RH  053%=      5-min Rain = 0
KST2 121059Z 00004KT M07/M15 A3036 RMK A01 T10671146  RH  053%=      5-min Rain = 0
KST2 121100Z 00004KT M07/M15 A3036 RMK A01 T10671147  RH  053%=      5-min Rain = 0
KST2 121101Z 00004KT M07/M15 A3036 RMK A01 T10671145  RH  054%=      5-min Rain = 0
KST2 121102Z 00004KT M07/M14 A3036 RMK A01 T10671142  RH  055%=      5-min Rain = 0
KST2 121103Z 00003KT M07/M14 A3036 RMK A01 T10671141  RH  056%=      5-min Rain = 0
KST2 121104Z 00003KT M07/M14 A3036 RMK A01 T10671141  RH  056%=      5-min Rain = 0
KST2 121105Z 00003KT M07/M14 A3036 RMK A01 T10661141  RH  055%=      5-min Rain = 0
KST2 121106Z 00003KT M07/M14 A3037 RMK A01 T10661142  RH  055%=      5-min Rain = 0
KST2 121107Z 00003KT M07/M14 A3037 RMK A01 T10661144  RH  054%=      5-min Rain = 0
KST2 121108Z 00003KT M07/M14 A3037 RMK A01 T10671144  RH  054%=      5-min Rain = 0
KST2 121109Z 00003KT M07/M14 A3037 RMK A01 T10661144  RH  054%=      5-min Rain = 0
KST2 121110Z 00003KT M07/M14 A3037 RMK A01 T10661143  RH  054%=      5-min Rain = 0
KST2 121111Z 00003KT M07/M14 A3037 RMK A01 T10661143  RH  055%=      5-min Rain = 0
KST2 121112Z 00003KT M07/M14 A3037 RMK A01 T10651141  RH  055%=      5-min Rain = 0
KST2 121113Z 00003KT M07/M14 A3036 RMK A01 T10661142  RH  055%=      5-min Rain = 0
KST2 121114Z 01002KT M07/M14 A3036 RMK A01 T10661142  RH  055%=      5-min Rain = 0
KST2 121115Z 01002KT M07/M14 A3036 RMK A01 T10651142  RH  054%=      5-min Rain = 0
KST2 121116Z 01003KT M07/M14 A3036 RMK A01 T10651144  RH  054%=      5-min Rain = 0
KST2 121117Z 01003KT M07/M14 A3036 RMK A01 T10651144  RH  053%=      5-min Rain = 0
KST2 121118Z 01003KT M07/M14 A3036 RMK A01 T10661144  RH  054%=      5-min Rain = 0
KST2 121119Z 01003KT M07/M15 A3036 RMK A01 T10661145  RH  054%=      5-min Rain = 0
KST2 121120Z 01003KT M07/M14 A3036 RMK A01 T10661144  RH  054%=      5-min Rain = 0
KST2 121121Z 01003KT M07/M15 A3036 RMK A01 T10661145  RH  053%=      5-min Rain = 0
KST2 121122Z 01002KT M07/M15 A3036 RMK A01 T10661147  RH  053%=      5-min Rain = 0
KST2 121123Z 01002KT M07/M15 A3036 RMK A01 T10661146  RH  053%=      5-min Rain = 0
KST2 121124Z 00003KT M07/M15 A3036 RMK A01 T10661146  RH  053%=      5-min Rain = 0
KST2 121125Z 36003KT M07/M14 A3036 RMK A01 T10661143  RH  054%=      5-min Rain = 0
KST2 121126Z 35003KT M07/M14 A3037 RMK A01 T10661142  RH  055%=      5-min Rain = 0
KST2 121127Z 35003KT M07/M14 A3037 RMK A01 T10661143  RH  054%=      5-min Rain = 0
KST2 121128Z 35002KT M07/M14 A3037 RMK A01 T10661143  RH  054%=      5-min Rain = 0
KST2 121129Z 35002KT M07/M14 A3037 RMK A01 T10661143  RH  054%=      5-min Rain = 0
KST2 121130Z 35002KT M07/M14 A3037 RMK A01 T10661143  RH  054%=      5-min Rain = 0
KST2 121131Z 35002KT M07/M15 A3037 RMK A01 T10661145  RH  054%=      5-min Rain = 0
KST2 121132Z 35001KT M07/M14 A3037 RMK A01 T10671144  RH  054%=      5-min Rain = 0
KST2 121133Z 35001KT M07/M14 A3037 RMK A01 T10661143  RH  054%=      5-min Rain = 0
KST2 121134Z 35001KT M07/M14 A3037 RMK A01 T10671144  RH  054%=      5-min Rain = 0
KST2 121135Z 35001KT M07/M14 A3037 RMK A01 T10671143  RH  055%=      5-min Rain = 0
KST2 121136Z 36002KT M07/M14 A3037 RMK A01 T10671143  RH  055%=      5-min Rain = 0
KST2 121137Z 00002KT M07/M14 A3037 RMK A01 T10671142  RH  055%=      5-min Rain = 0
KST2 121138Z 01002KT M07/M14 A3037 RMK A01 T10671142  RH  055%=      5-min Rain = 0
KST2 121139Z 01002KT M07/M14 A3037 RMK A01 T10671143  RH  055%=      5-min Rain = 0
KST2 121140Z 01002KT M07/M14 A3037 RMK A01 T10671144  RH  054%=      5-min Rain = 0
KST2 121141Z 01002KT M07/M14 A3037 RMK A01 T10671144  RH  055%=      5-min Rain = 0
KST2 121142Z 01002KT M07/M14 A3037 RMK A01 T10671143  RH  055%=      5-min Rain = 0
KST2 121143Z 01003KT M07/M14 A3037 RMK A01 T10671143  RH  055%=      5-min Rain = 0
KST2 121144Z 01003KT M07/M14 A3037 RMK A01 T10671142  RH  055%=      5-min Rain = 0
KST2 121145Z 01003KT M07/M14 A3037 RMK A01 T10671141  RH  055%=      5-min Rain = 0
KST2 121146Z 01003KT M07/M14 A3037 RMK A01 T10661140  RH  056%=      5-min Rain = 0
KST2 121147Z 01003KT M07/M14 A3037 RMK A01 T10661139  RH  056%=      5-min Rain = 0
KST2 121148Z 01004KT M07/M14 A3037 RMK A01 T10651138  RH  056%=      5-min Rain = 0
KST2 121149Z 01004KT M06/M14 A3037 RMK A01 T10641139  RH  056%=      5-min Rain = 0
KST2 121150Z 01004KT M06/M14 A3037 RMK A01 T10641140  RH  055%=      5-min Rain = 0
KST2 121151Z 01004KT M07/M14 A3037 RMK A01 T10651144  RH  054%=      5-min Rain = 0
KST2 121152Z 01005KT M07/M15 A3038 RMK A01 T10671147  RH  053%=      5-min Rain = 0
KST2 121153Z 01005KT M07/M15 A3038 RMK A01 T10681148  RH  053%=      5-min Rain = 0
KST2 121154Z 01005KT M07/M15 A3038 RMK A01 T10691148  RH  053%=      5-min Rain = 0
KST2 121155Z 01005KT M07/M15 A3038 RMK A01 T10691148  RH  053%=      5-min Rain = 0
KST2 121156Z 01005KT M07/M15 A3038 RMK A01 T10701149  RH  053%=      5-min Rain = 0
KST2 121157Z 01005KT M07/M15 A3038 RMK A01 T10701148  RH  054%=      5-min Rain = 0
KST2 121158Z 00005KT M07/M15 A3038 RMK A01 T10691147  RH  054%=      5-min Rain = 0
KST2 121159Z 00005KT M07/M15 A3038 RMK A01 T10681145  RH  055%=      5-min Rain = 0
KST2 121200Z 36005KT M07/M14 A3038 RMK A01 T10671143  RH  055%=      5-min Rain = 0
KST2 121201Z 35005KT M07/M14 A3038 RMK A01 T10671144  RH  054%=      5-min Rain = 0
KST2 121202Z 00005KT M07/M15 A3038 RMK A01 T10671146  RH  054%=      5-min Rain = 0
KST2 121203Z 00005KT M07/M15 A3038 RMK A01 T10681147  RH  053%=      5-min Rain = 0
KST2 121204Z 00005KT M07/M15 A3038 RMK A01 T10681148  RH  053%=      5-min Rain = 0
KST2 121205Z 00005KT M07/M15 A3038 RMK A01 T10681148  RH  053%=      5-min Rain = 0
KST2 121206Z 00005KT M07/M15 A3038 RMK A01 T10681148  RH  053%=      5-min Rain = 0
KST2 121207Z 01005KT M07/M15 A3038 RMK A01 T10671147  RH  053%=      5-min Rain = 0
KST2 121208Z 01005KT M07/M15 A3038 RMK A01 T10671147  RH  053%=      5-min Rain = 0
KST2 121209Z 01005KT M07/M15 A3038 RMK A01 T10661146  RH  053%=      5-min Rain = 0
KST2 121210Z 01005KT M07/M15 A3038 RMK A01 T10661145  RH  053%=      5-min Rain = 0
KST2 121211Z 01005KT M07/M14 A3038 RMK A01 T10651144  RH  054%=      5-min Rain = 0
KST2 121212Z 00006KT M06/M14 A3038 RMK A01 T10641142  RH  054%=      5-min Rain = 0
KST2 121213Z 00005KT M06/M14 A3038 RMK A01 T10631139  RH  055%=      5-min Rain = 0
KST2 121214Z 00005KT M06/M14 A3039 RMK A01 T10621137  RH  055%=      5-min Rain = 0
KST2 121215Z 36005KT M06/M14 A3039 RMK A01 T10611138  RH  054%=      5-min Rain = 0
KST2 121216Z 35005KT M06/M14 A3039 RMK A01 T10621141  RH  053%=      5-min Rain = 0
KST2 121217Z 35005KT M06/M14 A3039 RMK A01 T10621143  RH  053%=      5-min Rain = 0
KST2 121218Z 35005KT M06/M14 A3039 RMK A01 T10621143  RH  053%=      5-min Rain = 0
KST2 121219Z 35005KT M06/M14 A3039 RMK A01 T10621142  RH  053%=      5-min Rain = 0
KST2 121220Z 36006KT M06/M14 A3039 RMK A01 T10621140  RH  054%=      5-min Rain = 0
KST2 121221Z 00006KT M06/M14 A3039 RMK A01 T10611138  RH  055%=      5-min Rain = 0
KST2 121222Z 00006KT M06/M14 A3038 RMK A01 T10611137  RH  055%=      5-min Rain = 0
KST2 121223Z 00006KT M06/M14 A3038 RMK A01 T10601136  RH  055%=      5-min Rain = 0
KST2 121224Z 00006KT M06/M14 A3038 RMK A01 T10591136  RH  055%=      5-min Rain = 0
KST2 121225Z 01006KT M06/M14 A3038 RMK A01 T10591135  RH  055%=      5-min Rain = 0
KST2 121226Z 01007KT M06/M13 A3038 RMK A01 T10581133  RH  055%=      5-min Rain = 0
KST2 121227Z 01007KT M06/M13 A3038 RMK A01 T10571132  RH  056%=      5-min Rain = 0
KST2 121228Z 02007KT M06/M13 A3038 RMK A01 T10571132  RH  056%=      5-min Rain = 0
KST2 121229Z 01007KT M06/M13 A3038 RMK A01 T10561131  RH  056%=      5-min Rain = 0
KST2 121230Z 01006KT M06/M13 A3038 RMK A01 T10561130  RH  056%=      5-min Rain = 0
KST2 121231Z 00006KT M06/M13 A3038 RMK A01 T10551130  RH  056%=      5-min Rain = 0
KST2 121232Z 00006KT M06/M13 A3038 RMK A01 T10551129  RH  056%=      5-min Rain = 0
KST2 121233Z 00006KT M06/M13 A3038 RMK A01 T10551129  RH  056%=      5-min Rain = 0
KST2 121234Z 01006KT M06/M13 A3038 RMK A01 T10551130  RH  055%=      5-min Rain = 0
KST2 121235Z 01006KT M06/M13 A3038 RMK A01 T10551130  RH  055%=      5-min Rain = 0
KST2 121236Z 01006KT M05/M13 A3038 RMK A01 T10541130  RH  055%=      5-min Rain = 0
KST2 121237Z 01006KT M05/M13 A3038 RMK A01 T10541129  RH  056%=      5-min Rain = 0
KST2 121238Z 00006KT M05/M13 A3038 RMK A01 T10541129  RH  056%=      5-min Rain = 0
KST2 121239Z 00005KT M05/M13 A3039 RMK A01 T10531128  RH  056%=      5-min Rain = 0
KST2 121240Z 36005KT M05/M13 A3039 RMK A01 T10531127  RH  056%=      5-min Rain = 0
KST2 121241Z 36005KT M05/M13 A3039 RMK A01 T10531126  RH  056%=      5-min Rain = 0
KST2 121242Z 00006KT M05/M13 A3039 RMK A01 T10531126  RH  056%=      5-min Rain = 0
KST2 121243Z 01006KT M05/M13 A3038 RMK A01 T10531126  RH  056%=      5-min Rain = 0
KST2 121244Z 01005KT M05/M13 A3038 RMK A01 T10521126  RH  056%=      5-min Rain = 0
KST2 121245Z 01006KT M05/M13 A3038 RMK A01 T10521126  RH  056%=      5-min Rain = 0
KST2 121246Z 01006KT M05/M13 A3038 RMK A01 T10531126  RH  056%=      5-min Rain = 0
KST2 121247Z 01005KT M05/M13 A3038 RMK A01 T10521126  RH  056%=      5-min Rain = 0
KST2 121248Z 01005KT M05/M13 A3038 RMK A01 T10521126  RH  056%=      5-min Rain = 0
KST2 121249Z 02006KT M05/M13 A3038 RMK A01 T10521126  RH  056%=      5-min Rain = 0
KST2 121250Z 02006KT M05/M13 A3038 RMK A01 T10521126  RH  056%=      5-min Rain = 0
KST2 121251Z 02005KT M05/M13 A3038 RMK A01 T10521127  RH  056%=      5-min Rain = 0
KST2 121252Z 02005KT M05/M13 A3038 RMK A01 T10521126  RH  056%=      5-min Rain = 0
KST2 121253Z 01005KT M05/M13 A3038 RMK A01 T10521126  RH  056%=      5-min Rain = 0
KST2 121254Z 01005KT M05/M13 A3038 RMK A01 T10521126  RH  056%=      5-min Rain = 0
KST2 121255Z 01004KT M05/M13 A3038 RMK A01 T10521126  RH  056%=      5-min Rain = 0
KST2 121256Z 01003KT M05/M13 A3038 RMK A01 T10521126  RH  056%=      5-min Rain = 0
KST2 121257Z 02003KT M05/M13 A3038 RMK A01 T10531127  RH  056%=      5-min Rain = 0
KST2 121258Z 02003KT M05/M13 A3038 RMK A01 T10531128  RH  056%=      5-min Rain = 0
KST2 121259Z 01004KT M05/M13 A3038 RMK A01 T10531128  RH  056%=      5-min Rain = 0
KST2 121300Z 00004KT M05/M13 A3039 RMK A01 T10531128  RH  056%=      5-min Rain = 0
KST2 121301Z 00004KT M05/M13 A3039 RMK A01 T10541128  RH  056%=      5-min Rain = 0
KST2 121302Z 00004KT M05/M13 A3039 RMK A01 T10541128  RH  056%=      5-min Rain = 0
KST2 121303Z 00004KT M05/M13 A3039 RMK A01 T10541128  RH  056%=      5-min Rain = 0
KST2 121304Z 01004KT M05/M13 A3038 RMK A01 T10541129  RH  056%=      5-min Rain = 0
KST2 121305Z 02005KT M06/M13 A3038 RMK A01 T10551129  RH  056%=      5-min Rain = 0
KST2 121306Z 02004KT M06/M13 A3038 RMK A01 T10551130  RH  056%=      5-min Rain = 0
KST2 121307Z 01004KT M06/M13 A3039 RMK A01 T10561130  RH  056%=      5-min Rain = 0
KST2 121308Z 00005KT M06/M13 A3039 RMK A01 T10561130  RH  056%=      5-min Rain = 0
KST2 121309Z 36005KT M06/M13 A3039 RMK A01 T10561130  RH  056%=      5-min Rain = 0
KST2 121310Z 36005KT M06/M13 A3039 RMK A01 T10571130  RH  056%=      5-min Rain = 0
KST2 121311Z 36005KT M06/M13 A3039 RMK A01 T10571130  RH  056%=      5-min Rain = 0
KST2 121312Z 36005KT M06/M13 A3039 RMK A01 T10581131  RH  056%=      5-min Rain = 0
KST2 121313Z 00005KT M06/M13 A3039 RMK A01 T10581131  RH  056%=      5-min Rain = 0
KST2 121314Z 00005KT M06/M13 A3039 RMK A01 T10581131  RH  057%=      5-min Rain = 0
KST2 121315Z 00006KT M06/M13 A304 RMK A01 T10591131  RH  057%=      5-min Rain = 0
KST2 121316Z 00006KT M06/M13 A3039 RMK A01 T10581131  RH  057%=      5-min Rain = 0
KST2 121317Z 00005KT M06/M13 A3039 RMK A01 T10591131  RH  057%=      5-min Rain = 0
KST2 121318Z 01005KT M06/M13 A3039 RMK A01 T10591131  RH  057%=      5-min Rain = 0
KST2 121319Z 01005KT M06/M13 A3039 RMK A01 T10601131  RH  057%=      5-min Rain = 0
KST2 121320Z 01004KT M06/M13 A3039 RMK A01 T10591130  RH  057%=      5-min Rain = 0
KST2 121321Z 01004KT M06/M13 A3039 RMK A01 T10591130  RH  058%=      5-min Rain = 0
KST2 121322Z 01004KT M06/M13 A3039 RMK A01 T10591129  RH  058%=      5-min Rain = 0
KST2 121323Z 01004KT M06/M13 A3039 RMK A01 T10601129  RH  058%=      5-min Rain = 0
KST2 121324Z 00004KT M06/M13 A3039 RMK A01 T10601129  RH  058%=      5-min Rain = 0
KST2 121325Z 01004KT M06/M13 A3039 RMK A01 T10601129  RH  058%=      5-min Rain = 0
KST2 121326Z 02004KT M06/M13 A3039 RMK A01 T10601130  RH  058%=      5-min Rain = 0
KST2 121327Z 02004KT M06/M13 A3039 RMK A01 T10601131  RH  057%=      5-min Rain = 0
KST2 121328Z 01005KT M06/M13 A3039 RMK A01 T10601131  RH  057%=      5-min Rain = 0
KST2 121329Z 01005KT M06/M13 A304 RMK A01 T10601131  RH  057%=      5-min Rain = 0
KST2 121330Z 36005KT M06/M13 A304 RMK A01 T10611132  RH  057%=      5-min Rain = 0
KST2 121331Z 35005KT M06/M13 A304 RMK A01 T10611133  RH  057%=      5-min Rain = 0
KST2 121332Z 35005KT M06/M14 A304 RMK A01 T10621135  RH  056%=      5-min Rain = 0
KST2 121333Z 35005KT M06/M14 A304 RMK A01 T10621135  RH  056%=      5-min Rain = 0
KST2 121334Z 35005KT M06/M14 A304 RMK A01 T10621135  RH  056%=      5-min Rain = 0
KST2 121335Z 35005KT M06/M14 A304 RMK A01 T10621135  RH  056%=      5-min Rain = 0
KST2 121336Z 35005KT M06/M14 A304 RMK A01 T10621135  RH  056%=      5-min Rain = 0
KST2 121337Z 34004KT M06/M14 A304 RMK A01 T10621135  RH  056%=      5-min Rain = 0
KST2 121338Z 34005KT M06/M14 A304 RMK A01 T10621135  RH  056%=      5-min Rain = 0
KST2 121339Z 34004KT M06/M14 A304 RMK A01 T10631136  RH  056%=      5-min Rain = 0
KST2 121340Z 33004KT M06/M14 A3041 RMK A01 T10631136  RH  056%=      5-min Rain = 0
KST2 121341Z 32003KT M06/M14 A3041 RMK A01 T10631137  RH  056%=      5-min Rain = 0
KST2 121342Z 33003KT M06/M14 A3041 RMK A01 T10641138  RH  056%=      5-min Rain = 0
KST2 121343Z 34003KT M06/M14 A3041 RMK A01 T10641139  RH  055%=      5-min Rain = 0
KST2 121344Z 35003KT M06/M14 A3041 RMK A01 T10641139  RH  055%=      5-min Rain = 0
KST2 121345Z 35003KT M06/M14 A304 RMK A01 T10641139  RH  056%=      5-min Rain = 0
KST2 121346Z 00003KT M07/M14 A304 RMK A01 T10651138  RH  056%=      5-min Rain = 0
KST2 121347Z 00003KT M07/M14 A304 RMK A01 T10651138  RH  056%=      5-min Rain = 0
KST2 121348Z 01004KT M07/M14 A304 RMK A01 T10651138  RH  056%=      5-min Rain = 0
KST2 121349Z 02005KT M07/M14 A3039 RMK A01 T10651138  RH  056%=      5-min Rain = 0
KST2 121350Z 02005KT M07/M14 A3039 RMK A01 T10651138  RH  056%=      5-min Rain = 0
KST2 121351Z 03005KT M07/M14 A3039 RMK A01 T10651138  RH  056%=      5-min Rain = 0
KST2 121352Z 03005KT M07/M14 A3039 RMK A01 T10651138  RH  056%=      5-min Rain = 0
KST2 121353Z 03004KT M07/M14 A3039 RMK A01 T10651138  RH  056%=      5-min Rain = 0
KST2 121354Z 04004KT M06/M14 A304 RMK A01 T10641137  RH  056%=      5-min Rain = 0
KST2 121355Z 05004KT M06/M14 A304 RMK A01 T10641137  RH  056%=      5-min Rain = 0
KST2 121356Z 06004KT M06/M14 A3039 RMK A01 T10641136  RH  057%=      5-min Rain = 0
KST2 121357Z 06004KT M06/M14 A3039 RMK A01 T10631135  RH  057%=      5-min Rain = 0
KST2 121358Z 07004KT M06/M13 A3039 RMK A01 T10621134  RH  057%=      5-min Rain = 0
KST2 121359Z 07003KT M06/M13 A3039 RMK A01 T10621134  RH  057%=      5-min Rain = 0
KST2 121400Z 07003KT M06/M13 A3039 RMK A01 T10621134  RH  057%=      5-min Rain = 0
KST2 121401Z 07003KT M06/M14 A3039 RMK A01 T10621135  RH  057%=      5-min Rain = 0
KST2 121402Z 08004KT M06/M13 A3039 RMK A01 T10621134  RH  057%=      5-min Rain = 0
KST2 121403Z 08004KT M06/M14 A3039 RMK A01 T10631136  RH  056%=      5-min Rain = 0
KST2 121404Z 07005KT M06/M14 A3039 RMK A01 T10641137  RH  056%=      5-min Rain = 0
KST2 121405Z 07005KT M06/M13 A3039 RMK A01 T10631134  RH  057%=      5-min Rain = 0
KST2 121406Z 07005KT M06/M13 A3039 RMK A01 T10621130  RH  058%=      5-min Rain = 0
KST2 121407Z 08004KT M06/M13 A3039 RMK A01 T10601129  RH  058%=      5-min Rain = 0
KST2 121408Z 09004KT M06/M13 A3039 RMK A01 T10591128  RH  058%=      5-min Rain = 0
KST2 121409Z 09004KT M06/M13 A3039 RMK A01 T10581127  RH  058%=      5-min Rain = 0
KST2 121410Z 09004KT M06/M13 A3039 RMK A01 T10571128  RH  057%=      5-min Rain = 0
KST2 121411Z 08004KT M06/M13 A3039 RMK A01 T10571129  RH  057%=      5-min Rain = 0
KST2 121412Z 08004KT M06/M13 A3039 RMK A01 T10561129  RH  057%=      5-min Rain = 0
KST2 121413Z 08003KT M06/M13 A3039 RMK A01 T10561128  RH  057%=      5-min Rain = 0
KST2 121414Z 08003KT M05/M13 A3039 RMK A01 T10541126  RH  057%=      5-min Rain = 0
KST2 121415Z 07003KT M05/M12 A3039 RMK A01 T10541124  RH  058%=      5-min Rain = 0
KST2 121416Z 07004KT M05/M12 A3039 RMK A01 T10531123  RH  058%=      5-min Rain = 0
KST2 121417Z 07004KT M05/M12 A3039 RMK A01 T10521122  RH  058%=      5-min Rain = 0
KST2 121418Z 07004KT M05/M12 A3039 RMK A01 T10521121  RH  058%=      5-min Rain = 0
KST2 121419Z 07004KT M05/M12 A3039 RMK A01 T10521121  RH  058%=      5-min Rain = 0
KST2 121420Z 06004KT M05/M12 A3039 RMK A01 T10511120  RH  058%=      5-min Rain = 0
KST2 121421Z 07004KT M05/M12 A304 RMK A01 T10501120  RH  058%=      5-min Rain = 0
KST2 121422Z 08003KT M05/M12 A304 RMK A01 T10491119  RH  058%=      5-min Rain = 0
KST2 121423Z 08005KT M05/M12 A304 RMK A01 T10481118  RH  058%=      5-min Rain = 0
KST2 121424Z 09004KT M05/M12 A304 RMK A01 T10481118  RH  058%=      5-min Rain = 0
KST2 121425Z 09004KT M05/M12 A304 RMK A01 T10461118  RH  057%=      5-min Rain = 0
KST2 121426Z 10004KT M05/M12 A304 RMK A01 T10451118  RH  057%=      5-min Rain = 0
KST2 121427Z 10004KT M04/M12 A304 RMK A01 T10441118  RH  056%=      5-min Rain = 0
KST2 121428Z 09004KT M04/M12 A304 RMK A01 T10441118  RH  056%=      5-min Rain = 0
KST2 121429Z 10003KT M04/M12 A304 RMK A01 T10441119  RH  056%=      5-min Rain = 0
KST2 121430Z 10004KT M04/M12 A304 RMK A01 T10431118  RH  056%=      5-min Rain = 0
KST2 121431Z 10004KT M04/M12 A304 RMK A01 T10421118  RH  056%=      5-min Rain = 0
KST2 121432Z 11004KT M04/M12 A304 RMK A01 T10421118  RH  055%=      5-min Rain = 0
KST2 121433Z 10005KT M04/M12 A304 RMK A01 T10411118  RH  055%=      5-min Rain = 0
KST2 121434Z 10005KT M04/M12 A304 RMK A01 T10401118  RH  055%=      5-min Rain = 0
KST2 121435Z 10005KT M04/M12 A304 RMK A01 T10401118  RH  055%=      5-min Rain = 0
KST2 121436Z 09006KT M04/M12 A304 RMK A01 T10391117  RH  055%=      5-min Rain = 0
KST2 121437Z 10005KT M04/M12 A304 RMK A01 T10381117  RH  054%=      5-min Rain = 0
KST2 121438Z 09006KT M04/M12 A3041 RMK A01 T10361115  RH  054%=      5-min Rain = 0
KST2 121439Z 09007KT M04/M11 A3041 RMK A01 T10351114  RH  054%=      5-min Rain = 0
KST2 121440Z 09006KT M03/M12 A3041 RMK A01 T10341115  RH  054%=      5-min Rain = 0
KST2 121441Z 08007KT M03/M11 A3041 RMK A01 T10331114  RH  053%=      5-min Rain = 0
KST2 121442Z 08007KT M03/M11 A3041 RMK A01 T10331114  RH  053%=      5-min Rain = 0
KST2 121443Z 08006KT M03/M11 A304 RMK A01 T10321114  RH  053%=      5-min Rain = 0
KST2 121444Z 07007KT M03/M11 A3041 RMK A01 T10301113  RH  053%=      5-min Rain = 0
KST2 121445Z 07008KT M03/M11 A3041 RMK A01 T10291111  RH  053%=      5-min Rain = 0
KST2 121446Z 08007KT M03/M11 A3041 RMK A01 T10281112  RH  052%=      5-min Rain = 0
KST2 121447Z 08007KT M03/M11 A3041 RMK A01 T10271111  RH  052%=      5-min Rain = 0
KST2 121448Z 08007KT M03/M11 A3041 RMK A01 T10271112  RH  052%=      5-min Rain = 0
KST2 121449Z 08007KT M03/M11 A3041 RMK A01 T10261110  RH  052%=      5-min Rain = 0
KST2 121450Z 08008KT M02/M11 A3041 RMK A01 T10231109  RH  052%=      5-min Rain = 0
KST2 121451Z 08007KT M02/M11 A3041 RMK A01 T10231110  RH  051%=      5-min Rain = 0
KST2 121452Z 09006KT M02/M11 A3041 RMK A01 T10231111  RH  051%=      5-min Rain = 0
KST2 121453Z 08006KT M02/M11 A3041 RMK A01 T10241111  RH  051%=      5-min Rain = 0
KST2 121454Z 09007KT M02/M11 A3041 RMK A01 T10231110  RH  051%=      5-min Rain = 0
KST2 121455Z 09007KT M02/M11 A3042 RMK A01 T10211109  RH  051%=      5-min Rain = 0
KST2 121456Z 08006KT M02/M11 A3042 RMK A01 T10201109  RH  051%=      5-min Rain = 0
KST2 121457Z 08006KT M02/M11 A3042 RMK A01 T10181108  RH  050%=      5-min Rain = 0
KST2 121458Z 08006KT M02/M11 A3042 RMK A01 T10181108  RH  050%=      5-min Rain = 0
KST2 121459Z 09005KT M02/M11 A3042 RMK A01 T10171107  RH  050%=      5-min Rain = 0
KST2 121500Z 11005KT M02/M11 A3043 RMK A01 T10151106  RH  050%=      5-min Rain = 0
KST2 121501Z 11006KT M01/M11 A3043 RMK A01 T10141107  RH  049%=      5-min Rain = 0
KST2 121502Z 11005KT M01/M11 A3043 RMK A01 T10141107  RH  049%=      5-min Rain = 0
KST2 121503Z 10005KT M01/M11 A3043 RMK A01 T10131107  RH  049%=      5-min Rain = 0
KST2 121504Z 09004KT M01/M11 A3043 RMK A01 T10121106  RH  049%=      5-min Rain = 0
KST2 121505Z 09005KT M01/M11 A3043 RMK A01 T10111105  RH  049%=      5-min Rain = 0
KST2 121506Z 10005KT M01/M11 A3043 RMK A01 T10101105  RH  049%=      5-min Rain = 0
KST2 121507Z 09005KT M01/M10 A3043 RMK A01 T10091104  RH  049%=      5-min Rain = 0
KST2 121508Z 09005KT M01/M10 A3043 RMK A01 T10071103  RH  048%=      5-min Rain = 0
KST2 121509Z 08006KT M01/M10 A3043 RMK A01 T10071104  RH  048%=      5-min Rain = 0
KST2 121510Z 09007KT M01/M10 A3043 RMK A01 T10071103  RH  048%=      5-min Rain = 0
KST2 121511Z 08008KT M01/M10 A3043 RMK A01 T10071103  RH  048%=      5-min Rain = 0
KST2 121512Z 09008KT M01/M10 A3042 RMK A01 T10071103  RH  048%=      5-min Rain = 0
KST2 121513Z 08007KT M01/M10 A3042 RMK A01 T10071103  RH  048%=      5-min Rain = 0
KST2 121514Z 09007KT M01/M10 A3042 RMK A01 T10061102  RH  048%=      5-min Rain = 0
KST2 121515Z 10007KT M00/M10 A3043 RMK A01 T10041100  RH  048%=      5-min Rain = 0
KST2 121516Z 11006KT M00/M10 A3043 RMK A01 T10021100  RH  048%=      5-min Rain = 0
KST2 121517Z 10008KT M00/M10 A3043 RMK A01 T10011100  RH  047%=      5-min Rain = 0
KST2 121518Z 11009KT M00/M10 A3042 RMK A01 T10011102  RH  046%=      5-min Rain = 0
KST2 121519Z 11010KT M00/M10 A3042 RMK A01 T10011101  RH  047%=      5-min Rain = 0
KST2 121520Z 10009KT 00/10 A3042 RMK A01 T00-00-101  RH  046%=      5-min Rain = 0
KST2 121521Z 10008KT 00/10 A3042 RMK A01 T00000-100  RH  047%=      5-min Rain = 0
KST2 121522Z 11009KT 00/M10 A3042 RMK A01 T00031098  RH  047%=      5-min Rain = 0
KST2 121523Z 09008KT 00/M10 A3042 RMK A01 T00031099  RH  046%=      5-min Rain = 0
KST2 121524Z 09008KT 00/M10 A3042 RMK A01 T00031098  RH  046%=      5-min Rain = 0
KST2 121525Z 11010KT 00/M10 A3042 RMK A01 T00011102  RH  046%=      5-min Rain = 0
KST2 121526Z 11010KT M00/M10 A3042 RMK A01 T10021103  RH  046%=      5-min Rain = 0
KST2 121527Z 10010KT M00/M10 A3042 RMK A01 T10031102  RH  047%=      5-min Rain = 0
KST2 121528Z 09011KT M00/M10 A3042 RMK A01 T10021102  RH  047%=      5-min Rain = 0
KST2 121529Z 10010KT M00/M10 A3042 RMK A01 T10031103  RH  047%=      5-min Rain = 0
KST2 121530Z 10010KT M00/M10 A3042 RMK A01 T10031103  RH  047%=      5-min Rain = 0
KST2 121531Z 10010KT M00/M10 A3042 RMK A01 T10031103  RH  047%=      5-min Rain = 0
KST2 121532Z 10010KT M00/M10 A3042 RMK A01 T10031103  RH  047%=      5-min Rain = 0
KST2 121533Z 09009KT M00/M10 A3042 RMK A01 T10031103  RH  047%=      5-min Rain = 0
KST2 121534Z 08011KT M00/M10 A3041 RMK A01 T10021102  RH  047%=      5-min Rain = 0
KST2 121535Z 08012KT M00/M10 A3041 RMK A01 T10021103  RH  047%=      5-min Rain = 0
KST2 121536Z 09010KT M00/M10 A3042 RMK A01 T10041104  RH  047%=      5-min Rain = 0
KST2 121537Z 09010KT M01/M10 A3042 RMK A01 T10051104  RH  047%=      5-min Rain = 0
KST2 121538Z 09010KT M01/M10 A3042 RMK A01 T10051103  RH  047%=      5-min Rain = 0
KST2 121539Z 09009KT M01/M10 A3042 RMK A01 T10051103  RH  047%=      5-min Rain = 0
KST2 121540Z 09009KT M00/M10 A3042 RMK A01 T10041103  RH  047%=      5-min Rain = 0
KST2 121541Z 09008KT M00/M10 A3043 RMK A01 T10041103  RH  047%=      5-min Rain = 0
KST2 121542Z 09007KT M00/M10 A3043 RMK A01 T10041103  RH  047%=      5-min Rain = 0
KST2 121543Z 10008KT M00/M10 A3043 RMK A01 T10041103  RH  047%=      5-min Rain = 0
KST2 121544Z 10007KT M00/M10 A3043 RMK A01 T10041103  RH  047%=      5-min Rain = 0
KST2 121545Z 10009KT M00/M10 A3043 RMK A01 T10041103  RH  047%=      5-min Rain = 0
KST2 121546Z 10009KT M00/M10 A3043 RMK A01 T10031103  RH  047%=      5-min Rain = 0
KST2 121547Z 10010KT M00/M10 A3042 RMK A01 T10041104  RH  047%=      5-min Rain = 0
KST2 121548Z 10009KT M01/M10 A3042 RMK A01 T10051103  RH  047%=      5-min Rain = 0
KST2 121549Z 10008KT M00/M10 A3042 RMK A01 T10041102  RH  047%=      5-min Rain = 0
KST2 121550Z 10007KT M00/M10 A3042 RMK A01 T10031102  RH  047%=      5-min Rain = 0
KST2 121551Z 09008KT M00/M10 A3042 RMK A01 T10031102  RH  047%=      5-min Rain = 0
KST2 121552Z 09008KT M00/M10 A3042 RMK A01 T10021101  RH  047%=      5-min Rain = 0
KST2 121553Z 09008KT M00/M10 A3042 RMK A01 T10021102  RH  047%=      5-min Rain = 0
KST2 121554Z 09009KT M00/M10 A3042 RMK A01 T10021101  RH  047%=      5-min Rain = 0
KST2 121555Z 08010KT M00/M10 A3042 RMK A01 T10021102  RH  047%=      5-min Rain = 0
KST2 121556Z 09009KT M00/M10 A3042 RMK A01 T10031103  RH  047%=      5-min Rain = 0
KST2 121557Z 09009KT M00/M10 A3042 RMK A01 T10041102  RH  047%=      5-min Rain = 0
KST2 121558Z 09009KT M00/M10 A3042 RMK A01 T10021100  RH  048%=      5-min Rain = 0
KST2 121559Z 09009KT M00/M10 A3041 RMK A01 T10021102  RH  047%=      5-min Rain = 0
KST2 121600Z 08009KT M00/M10 A3041 RMK A01 T10031102  RH  047%=      5-min Rain = 0
KST2 121601Z 08010KT M00/M10 A3041 RMK A01 T10031102  RH  047%=      5-min Rain = 0
KST2 121602Z 08010KT M00/M10 A3041 RMK A01 T10041102  RH  048%=      5-min Rain = 0
KST2 121603Z 09011KT M00/M10 A3041 RMK A01 T10041102  RH  048%=      5-min Rain = 0
KST2 121604Z 09010KT M00/M10 A3041 RMK A01 T10041101  RH  048%=      5-min Rain = 0
KST2 121605Z 10008KT M00/M10 A3041 RMK A01 T10041101  RH  048%=      5-min Rain = 0
KST2 121606Z 11009KT M00/M10 A3041 RMK A01 T10021099  RH  048%=      5-min Rain = 0
KST2 121607Z 10008KT M00/M10 A3041 RMK A01 T10011100  RH  047%=      5-min Rain = 0
KST2 121608Z 10009KT M00/M10 A3041 RMK A01 T10011099  RH  047%=      5-min Rain = 0
KST2 121609Z 09009KT 00/10 A3041 RMK A01 T00-00-99  RH  047%=      5-min Rain = 0
KST2 121610Z 08010KT 00/M10 A3041 RMK A01 T00011098  RH  047%=      5-min Rain = 0
KST2 121611Z 10009KT 00/M10 A3041 RMK A01 T00011098  RH  047%=      5-min Rain = 0
KST2 121612Z 09008KT 00/M10 A3041 RMK A01 T00021098  RH  047%=      5-min Rain = 0
KST2 121613Z 08009KT 00/M10 A3041 RMK A01 T00011098  RH  047%=      5-min Rain = 0
KST2 121614Z 09009KT 00/M10 A3041 RMK A01 T00011099  RH  047%=      5-min Rain = 0
KST2 121615Z 08009KT 00/M10 A3041 RMK A01 T00011098  RH  047%=      5-min Rain = 0
KST2 121616Z 09008KT 00/M10 A3041 RMK A01 T00011098  RH  048%=      5-min Rain = 0
KST2 121617Z 09012KT 00/M10 A3041 RMK A01 T00031096  RH  048%=      5-min Rain = 0
KST2 121618Z 09010KT 00/M10 A3041 RMK A01 T00031097  RH  047%=      5-min Rain = 0
KST2 121619Z 08010KT 00/M10 A304 RMK A01 T00021097  RH  047%=      5-min Rain = 0
KST2 121620Z 08011KT 00/M10 A304 RMK A01 T00031096  RH  047%=      5-min Rain = 0
KST2 121621Z 08011KT 00/M10 A3041 RMK A01 T00041096  RH  047%=      5-min Rain = 0
KST2 121622Z 07009KT 00/M10 A3041 RMK A01 T00031098  RH  046%=      5-min Rain = 0
KST2 121623Z 08009KT 00/M10 A3041 RMK A01 T00021098  RH  047%=      5-min Rain = 0
KST2 121624Z 08009KT 00/M10 A3041 RMK A01 T00021098  RH  047%=      5-min Rain = 0
KST2 121625Z 09007KT 00/M10 A3041 RMK A01 T00011098  RH  047%=      5-min Rain = 0
KST2 121626Z 09008KT 00/M10 A3041 RMK A01 T00011098  RH  047%=      5-min Rain = 0
KST2 121627Z 07009KT 00/M10 A3041 RMK A01 T00021096  RH  047%=      5-min Rain = 0
KST2 121628Z 07009KT 00/M10 A3042 RMK A01 T00041096  RH  047%=      5-min Rain = 0
KST2 121629Z 07008KT 00/M10 A3042 RMK A01 T00041097  RH  047%=      5-min Rain = 0
KST2 121630Z 08009KT 01/M10 A3042 RMK A01 T00051096  RH  047%=      5-min Rain = 0
KST2 121631Z 07008KT 01/M10 A3041 RMK A01 T00051097  RH  046%=      5-min Rain = 0
KST2 121632Z 08008KT 01/M10 A3041 RMK A01 T00051097  RH  046%=      5-min Rain = 0
KST2 121633Z 08009KT 01/M10 A3041 RMK A01 T00051098  RH  046%=      5-min Rain = 0
KST2 121634Z 07007KT 01/M10 A3041 RMK A01 T00051098  RH  046%=      5-min Rain = 0
KST2 121635Z 07008KT 01/M10 A3041 RMK A01 T00061097  RH  046%=      5-min Rain = 0
KST2 121636Z 07010KT 01/M10 A3041 RMK A01 T00081097  RH  045%=      5-min Rain = 0
KST2 121637Z 07009KT 01/M10 A3041 RMK A01 T00091096  RH  045%=      5-min Rain = 0
KST2 121638Z 08007KT 01/M10 A3041 RMK A01 T00101097  RH  045%=      5-min Rain = 0
KST2 121639Z 07008KT 01/M10 A3041 RMK A01 T00101097  RH  045%=      5-min Rain = 0
KST2 121640Z 07011KT 01/M10 A3042 RMK A01 T00091099  RH  044%=      5-min Rain = 0
KST2 121641Z 08009KT 01/M10 A3041 RMK A01 T00111098  RH  044%=      5-min Rain = 0
KST2 121642Z 06008KT 01/M10 A3041 RMK A01 T00111098  RH  044%=      5-min Rain = 0
KST2 121643Z 09008KT 01/M10 A3041 RMK A01 T00111098  RH  044%=      5-min Rain = 0
KST2 121644Z 08007KT 01/M10 A3042 RMK A01 T00111099  RH  044%=      5-min Rain = 0
KST2 121645Z 08009KT 01/M10 A3042 RMK A01 T00111098  RH  044%=      5-min Rain = 0
KST2 121646Z 09009KT 01/M10 A3042 RMK A01 T00121099  RH  043%=      5-min Rain = 0
KST2 121647Z 09009KT 01/M10 A3042 RMK A01 T00121099  RH  043%=      5-min Rain = 0
KST2 121648Z 09007KT 01/M10 A3042 RMK A01 T00091102  RH  043%=      5-min Rain = 0
KST2 121649Z 08009KT 01/M10 A3042 RMK A01 T00101099  RH  044%=      5-min Rain = 0
KST2 121650Z 09009KT 01/M10 A3042 RMK A01 T00111099  RH  044%=      5-min Rain = 0
KST2 121651Z 09008KT 01/M10 A3042 RMK A01 T00121098  RH  044%=      5-min Rain = 0
KST2 121652Z 08008KT 01/M10 A3042 RMK A01 T00131098  RH  043%=      5-min Rain = 0
KST2 121653Z 06007KT 02/M09 A3042 RMK A01 T00151094  RH  044%=      5-min Rain = 0
KST2 121654Z 05006KT 02/M10 A3042 RMK A01 T00171095  RH  043%=      5-min Rain = 0
KST2 121655Z 06006KT 02/M10 A3042 RMK A01 T00161097  RH  043%=      5-min Rain = 0
KST2 121656Z 06005KT 02/M10 A3042 RMK A01 T00151098  RH  043%=      5-min Rain = 0
KST2 121657Z 06006KT 02/M10 A3042 RMK A01 T00151095  RH  044%=      5-min Rain = 0
KST2 121658Z 08007KT 02/M10 A3042 RMK A01 T00151097  RH  043%=      5-min Rain = 0
KST2 121659Z 08006KT 01/M10 A3042 RMK A01 T00121100  RH  043%=      5-min Rain = 0
KST2 121700Z 07007KT 01/M10 A3042 RMK A01 T00111099  RH  044%=      5-min Rain = 0
KST2 121701Z 05008KT 01/M10 A3042 RMK A01 T00121098  RH  044%=      5-min Rain = 0
KST2 121702Z 04006KT 01/M10 A3042 RMK A01 T00121098  RH  044%=      5-min Rain = 0
KST2 121703Z 06006KT 01/M10 A3042 RMK A01 T00121098  RH  044%=      5-min Rain = 0
KST2 121704Z 07006KT 01/M10 A3042 RMK A01 T00131098  RH  044%=      5-min Rain = 0
KST2 121705Z 08005KT 01/M10 A3042 RMK A01 T00131097  RH  044%=      5-min Rain = 0
KST2 121706Z 07005KT 02/M10 A3042 RMK A01 T00151096  RH  043%=      5-min Rain = 0
KST2 121707Z 09007KT 02/M09 A3042 RMK A01 T00171094  RH  043%=      5-min Rain = 0
KST2 121708Z 09008KT 02/M09 A3042 RMK A01 T00211091  RH  043%=      5-min Rain = 0
KST2 121709Z 09007KT 02/M09 A3042 RMK A01 T00241092  RH  042%=      5-min Rain = 0
KST2 121710Z 09007KT 02/M10 A3042 RMK A01 T00211096  RH  041%=      5-min Rain = 0
KST2 121711Z 08006KT 02/M10 A3042 RMK A01 T00201096  RH  042%=      5-min Rain = 0
KST2 121712Z 09007KT 02/M10 A3042 RMK A01 T00191097  RH  042%=      5-min Rain = 0
KST2 121713Z 07006KT 02/M10 A3042 RMK A01 T00191096  RH  042%=      5-min Rain = 0
KST2 121714Z 09009KT 02/M10 A3042 RMK A01 T00201095  RH  042%=      5-min Rain = 0
KST2 121715Z 11008KT 02/M09 A3042 RMK A01 T00211094  RH  042%=      5-min Rain = 0
KST2 121716Z 07006KT 02/M09 A3042 RMK A01 T00221094  RH  042%=      5-min Rain = 0
KST2 121717Z 07006KT 02/M09 A3042 RMK A01 T00231094  RH  042%=      5-min Rain = 0
KST2 121718Z 08004KT 02/M10 A3042 RMK A01 T00231095  RH  041%=      5-min Rain = 0
KST2 121719Z 11007KT 02/M09 A3042 RMK A01 T00231094  RH  042%=      5-min Rain = 0
KST2 121720Z 11006KT 02/M10 A3042 RMK A01 T00231095  RH  042%=      5-min Rain = 0
KST2 121721Z 08006KT 02/M09 A3042 RMK A01 T00231094  RH  042%=      5-min Rain = 0
KST2 121722Z 07007KT 02/M09 A3042 RMK A01 T00231094  RH  042%=      5-min Rain = 0
KST2 121723Z 06007KT 02/M09 A3042 RMK A01 T00231094  RH  042%=      5-min Rain = 0
KST2 121724Z 07008KT 02/M09 A3042 RMK A01 T00241094  RH  041%=      5-min Rain = 0
KST2 121725Z 06006KT 02/M10 A3042 RMK A01 T00231097  RH  041%=      5-min Rain = 0
KST2 121726Z 08005KT 02/M10 A3042 RMK A01 T00221097  RH  041%=      5-min Rain = 0
KST2 121727Z 06005KT 02/M09 A3042 RMK A01 T00241094  RH  041%=      5-min Rain = 0
KST2 121728Z 06004KT 02/M10 A3042 RMK A01 T00231096  RH  041%=      5-min Rain = 0
KST2 121729Z 06005KT 02/M10 A3041 RMK A01 T00221096  RH  041%=      5-min Rain = 0
KST2 121730Z 10005KT 02/M10 A3041 RMK A01 T00221095  RH  042%=      5-min Rain = 0
KST2 121731Z 10004KT 02/M09 A3041 RMK A01 T00231094  RH  042%=      5-min Rain = 0
KST2 121732Z 06007KT 03/M09 A3041 RMK A01 T00251092  RH  042%=      5-min Rain = 0
KST2 121733Z 06006KT 03/M09 A3041 RMK A01 T00281092  RH  041%=      5-min Rain = 0
KST2 121734Z 08007G12KT 03/M09 A3041 RMK A01 T00281092  RH  041%=      5-min Rain = 0
KST2 121735Z 08009KT 03/M09 A3041 RMK A01 T00291090  RH  041%=      5-min Rain = 0
KST2 121736Z 08007KT 03/M09 A3041 RMK A01 T00291093  RH  040%=      5-min Rain = 0
KST2 121737Z 07006KT 03/M10 A3041 RMK A01 T00261095  RH  041%=      5-min Rain = 0
KST2 121738Z 10006KT 03/M09 A3041 RMK A01 T00271092  RH  041%=      5-min Rain = 0
KST2 121739Z 11004KT 03/M09 A3041 RMK A01 T00271092  RH  041%=      5-min Rain = 0
KST2 121740Z 13003KT 03/M09 A3041 RMK A01 T00281092  RH  041%=      5-min Rain = 0
KST2 121741Z 13003KT 03/M09 A3041 RMK A01 T00301091  RH  041%=      5-min Rain = 0
KST2 121742Z 07006KT 03/M09 A3041 RMK A01 T00311090  RH  041%=      5-min Rain = 0
KST2 121743Z 05005KT 03/M09 A3041 RMK A01 T00331090  RH  040%=      5-min Rain = 0
KST2 121744Z 07007KT 03/M09 A3041 RMK A01 T00321091  RH  040%=      5-min Rain = 0
KST2 121745Z 08007KT 03/M09 A3041 RMK A01 T00311092  RH  040%=      5-min Rain = 0
KST2 121746Z 09003KT 03/M09 A3041 RMK A01 T00291093  RH  040%=      5-min Rain = 0
KST2 121747Z 03003KT 03/M09 A3041 RMK A01 T00271093  RH  041%=      5-min Rain = 0
KST2 121748Z 06004KT 03/M09 A3041 RMK A01 T00271092  RH  041%=      5-min Rain = 0
KST2 121749Z 06005KT 03/M09 A3041 RMK A01 T00301088  RH  042%=      5-min Rain = 0
KST2 121750Z 07007KT 03/M09 A3041 RMK A01 T00311089  RH  041%=      5-min Rain = 0
KST2 121751Z 06009KT 03/M09 A3041 RMK A01 T00331086  RH  041%=      5-min Rain = 0
KST2 121752Z 07007G12KT 04/M09 A3041 RMK A01 T00351088  RH  040%=      5-min Rain = 0
KST2 121753Z 09007KT 03/M09 A3041 RMK A01 T00341090  RH  040%=      5-min Rain = 0
KST2 121754Z 11005KT 03/M09 A3041 RMK A01 T00321091  RH  040%=      5-min Rain = 0
KST2 121755Z 07006KT 03/M09 A304 RMK A01 T00331089  RH  041%=      5-min Rain = 0
KST2 121756Z 08006KT 03/M09 A304 RMK A01 T00341088  RH  040%=      5-min Rain = 0
KST2 121757Z 09006KT 04/M09 A304 RMK A01 T00361088  RH  040%=      5-min Rain = 0
KST2 121758Z 09004KT 03/M09 A3041 RMK A01 T00341091  RH  040%=      5-min Rain = 0
KST2 121759Z 10003KT 03/M09 A304 RMK A01 T00321092  RH  040%=      5-min Rain = 0
KST2 121800Z 10004KT 03/M09 A304 RMK A01 T00321090  RH  040%=      5-min Rain = 0
KST2 121801Z 12003KT 03/M09 A304 RMK A01 T00331089  RH  040%=      5-min Rain = 0
KST2 121802Z 11003KT 03/M09 A304 RMK A01 T00341089  RH  040%=      5-min Rain = 0
KST2 121803Z 15002KT 04/M09 A304 RMK A01 T00351090  RH  040%=      5-min Rain = 0
KST2 121804Z 13004KT 04/M09 A304 RMK A01 T00361088  RH  040%=      5-min Rain = 0
KST2 121805Z 11002KT 04/M09 A304 RMK A01 T00361090  RH  039%=      5-min Rain = 0
KST2 121806Z 08008KT 04/M09 A304 RMK A01 T00391087  RH  039%=      5-min Rain = 0
KST2 121807Z 08009KT 04/M09 A304 RMK A01 T00411089  RH  038%=      5-min Rain = 0
KST2 121808Z 08010KT 04/M09 A304 RMK A01 T00391092  RH  038%=      5-min Rain = 0
KST2 121809Z 07008KT 04/M09 A304 RMK A01 T00401089  RH  038%=      5-min Rain = 0
KST2 121810Z 06004KT 04/M09 A304 RMK A01 T00391091  RH  038%=      5-min Rain = 0
KST2 121811Z 10005KT 04/M09 A304 RMK A01 T00371092  RH  038%=      5-min Rain = 0
KST2 121812Z 10006KT 04/M09 A3039 RMK A01 T00381090  RH  039%=      5-min Rain = 0
KST2 121813Z 10003KT 04/M09 A3039 RMK A01 T00381091  RH  038%=      5-min Rain = 0
KST2 121814Z 14001KT 04/M09 A3039 RMK A01 T00371092  RH  039%=      5-min Rain = 0
KST2 121815Z 11003KT 04/M09 A3039 RMK A01 T00391090  RH  038%=      5-min Rain = 0
KST2 121816Z 09007KT 04/M09 A3039 RMK A01 T00421087  RH  039%=      5-min Rain = 0
KST2 121817Z 10007KT 05/M09 A3039 RMK A01 T00451087  RH  038%=      5-min Rain = 0
KST2 121818Z 05006KT 04/M09 A3039 RMK A01 T00441090  RH  037%=      5-min Rain = 0
KST2 121819Z 06009KT 05/M09 A3039 RMK A01 T00451088  RH  038%=      5-min Rain = 0
KST2 121820Z 05007KT 05/M09 A3039 RMK A01 T00461089  RH  037%=      5-min Rain = 0
KST2 121821Z 03007KT 05/M09 A3039 RMK A01 T00451090  RH  037%=      5-min Rain = 0
KST2 121822Z 04007KT 05/M09 A3039 RMK A01 T00451089  RH  037%=      5-min Rain = 0
KST2 121823Z 05006KT 05/M09 A3039 RMK A01 T00471087  RH  037%=      5-min Rain = 0
KST2 121824Z 07006KT 05/M09 A3039 RMK A01 T00481088  RH  037%=      5-min Rain = 0
KST2 121825Z 06005KT 05/M09 A3039 RMK A01 T00481088  RH  037%=      5-min Rain = 0
KST2 121826Z 07003KT 05/M09 A3039 RMK A01 T00471090  RH  037%=      5-min Rain = 0
KST2 121827Z 10002KT 05/M09 A3038 RMK A01 T00461089  RH  037%=      5-min Rain = 0
KST2 121828Z 07001KT 05/M09 A3038 RMK A01 T00471088  RH  037%=      5-min Rain = 0
KST2 121829Z 03005KT 05/M09 A3038 RMK A01 T00481087  RH  037%=      5-min Rain = 0
KST2 121830Z 08008KT 05/M09 A3038 RMK A01 T00501085  RH  037%=      5-min Rain = 0
KST2 121831Z 08005KT 05/M09 A3038 RMK A01 T00511086  RH  036%=      5-min Rain = 0
KST2 121832Z 08006KT 05/M09 A3038 RMK A01 T00501088  RH  036%=      5-min Rain = 0
KST2 121833Z 09007KT 05/M09 A3038 RMK A01 T00491087  RH  037%=      5-min Rain = 0
KST2 121834Z 07009KT 06/M08 A3038 RMK A01 T00551082  RH  036%=      5-min Rain = 0
KST2 121835Z 06009KT 06/M09 A3038 RMK A01 T00551087  RH  035%=      5-min Rain = 0
KST2 121836Z 04007KT 05/M09 A3038 RMK A01 T00531089  RH  035%=      5-min Rain = 0
KST2 121837Z 03006KT 05/M09 A3038 RMK A01 T00501089  RH  036%=      5-min Rain = 0
KST2 121838Z 04006KT 05/M09 A3038 RMK A01 T00481091  RH  036%=      5-min Rain = 0
KST2 121839Z 06008KT 05/M09 A3038 RMK A01 T00481088  RH  036%=      5-min Rain = 0
KST2 121840Z 07009KT 05/M08 A3038 RMK A01 T00531084  RH  036%=      5-min Rain = 0
KST2 121841Z 06007KT 06/M09 A3038 RMK A01 T00551086  RH  035%=      5-min Rain = 0
KST2 121842Z 07006KT 05/M09 A3038 RMK A01 T00521090  RH  035%=      5-min Rain = 0
KST2 121843Z 07007KT 05/M09 A3038 RMK A01 T00501089  RH  036%=      5-min Rain = 0
KST2 121844Z 08006KT 05/M09 A3038 RMK A01 T00501089  RH  036%=      5-min Rain = 0
KST2 121845Z 08004KT 05/M09 A3037 RMK A01 T00491090  RH  036%=      5-min Rain = 0
KST2 121846Z 03001KT 05/M09 A3037 RMK A01 T00471090  RH  036%=      5-min Rain = 0
KST2 121847Z 07001KT 05/M09 A3037 RMK A01 T00471090  RH  036%=      5-min Rain = 0
KST2 121848Z 08008KT 05/M09 A3037 RMK A01 T00491087  RH  037%=      5-min Rain = 0
KST2 121849Z 07005KT 05/M09 A3037 RMK A01 T00531086  RH  036%=      5-min Rain = 0
KST2 121850Z 04005KT 05/M09 A3036 RMK A01 T00511088  RH  036%=      5-min Rain = 0
KST2 121851Z 07009KT 06/M08 A3036 RMK A01 T00571082  RH  036%=      5-min Rain = 0
KST2 121852Z 07008KT 06/M09 A3036 RMK A01 T00591086  RH  035%=      5-min Rain = 0
KST2 121853Z 07005KT 06/M09 A3036 RMK A01 T00561089  RH  034%=      5-min Rain = 0
KST2 121854Z 05007KT 05/M09 A3036 RMK A01 T00541088  RH  035%=      5-min Rain = 0
KST2 121855Z 06006KT 05/M09 A3036 RMK A01 T00531089  RH  035%=      5-min Rain = 0
KST2 121856Z 04006KT 05/M09 A3036 RMK A01 T00541087  RH  036%=      5-min Rain = 0
KST2 121857Z 04006KT 06/M09 A3036 RMK A01 T00551087  RH  035%=      5-min Rain = 0
KST2 121858Z 04004KT 05/M09 A3035 RMK A01 T00531090  RH  035%=      5-min Rain = 0
KST2 121859Z 03004KT 05/M09 A3035 RMK A01 T00531088  RH  035%=      5-min Rain = 0
KST2 121900Z 03004KT 05/M09 A3035 RMK A01 T00531088  RH  035%=      5-min Rain = 0
KST2 121901Z 04005KT 05/M09 A3035 RMK A01 T00531088  RH  035%=      5-min Rain = 0
KST2 121902Z 10007KT 06/M09 A3035 RMK A01 T00551086  RH  035%=      5-min Rain = 0
KST2 121903Z 11005KT 06/M09 A3035 RMK A01 T00591085  RH  035%=      5-min Rain = 0
KST2 121904Z 06005KT 06/M09 A3035 RMK A01 T00591086  RH  034%=      5-min Rain = 0
KST2 121905Z 06005G10KT 06/M09 A3035 RMK A01 T00611085  RH  034%=      5-min Rain = 0
KST2 121906Z 08008KT 06/M09 A3035 RMK A01 T00621085  RH  034%=      5-min Rain = 0
KST2 121907Z 06008KT 06/M09 A3035 RMK A01 T00631086  RH  034%=      5-min Rain = 0
KST2 121908Z 05006KT 06/M09 A3035 RMK A01 T00621087  RH  033%=      5-min Rain = 0
KST2 121909Z 05007KT 06/M09 A3035 RMK A01 T00611087  RH  034%=      5-min Rain = 0
KST2 121910Z 05005KT 06/M09 A3035 RMK A01 T00621086  RH  034%=      5-min Rain = 0
KST2 121911Z 08006KT 06/M09 A3034 RMK A01 T00621087  RH  034%=      5-min Rain = 0
KST2 121912Z 07006KT 06/M09 A3035 RMK A01 T00601088  RH  034%=      5-min Rain = 0
KST2 121913Z 08005KT 06/M09 A3034 RMK A01 T00581089  RH  034%=      5-min Rain = 0
KST2 121914Z 09006KT 06/M09 A3034 RMK A01 T00601085  RH  035%=      5-min Rain = 0
KST2 121915Z 08003KT 06/M08 A3034 RMK A01 T00631083  RH  034%=      5-min Rain = 0
KST2 121916Z 04004KT 07/M08 A3034 RMK A01 T00661083  RH  034%=      5-min Rain = 0
KST2 121917Z 08004KT 07/M08 A3034 RMK A01 T00691083  RH  033%=      5-min Rain = 0
KST2 121918Z 07003KT 07/M09 A3034 RMK A01 T00671087  RH  032%=      5-min Rain = 0
KST2 121919Z 09006KT 07/M09 A3034 RMK A01 T00661085  RH  033%=      5-min Rain = 0
KST2 121920Z 11007KT 07/M08 A3034 RMK A01 T00701081  RH  033%=      5-min Rain = 0
KST2 121921Z 11004KT 07/M08 A3034 RMK A01 T00711084  RH  032%=      5-min Rain = 0
KST2 121922Z 07005KT 07/M09 A3034 RMK A01 T00711085  RH  032%=      5-min Rain = 0
KST2 121923Z 06005KT 07/M09 A3034 RMK A01 T00701086  RH  032%=      5-min Rain = 0
KST2 121924Z 06010KT 07/M09 A3034 RMK A01 T00671087  RH  032%=      5-min Rain = 0
KST2 121925Z 06008KT 07/M09 A3034 RMK A01 T00681085  RH  033%=      5-min Rain = 0
KST2 121926Z 05007KT 07/M09 A3033 RMK A01 T00681086  RH  032%=      5-min Rain = 0
KST2 121927Z 08008KT 07/M09 A3033 RMK A01 T00681086  RH  032%=      5-min Rain = 0
KST2 121928Z 06005KT 07/M09 A3033 RMK A01 T00671087  RH  033%=      5-min Rain = 0
KST2 121929Z 03005KT 07/M09 A3033 RMK A01 T00661087  RH  033%=      5-min Rain = 0
KST2 121930Z 05005KT 07/M08 A3033 RMK A01 T00671084  RH  033%=      5-min Rain = 0
KST2 121931Z 04002KT 07/M08 A3033 RMK A01 T00701084  RH  032%=      5-min Rain = 0
KST2 121932Z 04003KT 07/M09 A3033 RMK A01 T00691086  RH  032%=      5-min Rain = 0
KST2 121933Z 06006KT 07/M09 A3033 RMK A01 T00691085  RH  032%=      5-min Rain = 0
KST2 121934Z 09008KT 07/M08 A3032 RMK A01 T00711084  RH  032%=      5-min Rain = 0
KST2 121935Z 09007KT 07/M08 A3032 RMK A01 T00711084  RH  032%=      5-min Rain = 0
KST2 121936Z 10007KT 07/M08 A3032 RMK A01 T00721084  RH  032%=      5-min Rain = 0
KST2 121937Z 06005KT 07/M08 A3032 RMK A01 T00741082  RH  032%=      5-min Rain = 0
KST2 121938Z 05006KT 08/M08 A3032 RMK A01 T00761082  RH  031%=      5-min Rain = 0
KST2 121939Z 07005KT 07/M09 A3032 RMK A01 T00741086  RH  031%=      5-min Rain = 0
KST2 121940Z 05005KT 07/M09 A3032 RMK A01 T00721085  RH  032%=      5-min Rain = 0
KST2 121941Z 04006KT 07/M08 A3032 RMK A01 T00741083  RH  032%=      5-min Rain = 0
KST2 121942Z 03003KT 08/M08 A3032 RMK A01 T00751084  RH  031%=      5-min Rain = 0
KST2 121943Z 08005KT 07/M08 A3032 RMK A01 T00741084  RH  032%=      5-min Rain = 0
KST2 121944Z 08009KT 08/M08 A3032 RMK A01 T00751083  RH  032%=      5-min Rain = 0
KST2 121945Z 08008KT 08/M09 A3032 RMK A01 T00751085  RH  031%=      5-min Rain = 0
KST2 121946Z 06006KT 07/M09 A3031 RMK A01 T00741085  RH  031%=      5-min Rain = 0
KST2 121947Z 07005KT 08/M08 A3031 RMK A01 T00751084  RH  032%=      5-min Rain = 0
KST2 121948Z 07003KT 08/M08 A3031 RMK A01 T00801079  RH  032%=      5-min Rain = 0
KST2 121949Z 08009G14KT 08/M08 A3031 RMK A01 T00841079  RH  031%=      5-min Rain = 0
KST2 121950Z 09011KT 09/M08 A3031 RMK A01 T00861079  RH  030%=      5-min Rain = 0
KST2 121951Z 10011KT 09/M08 A3031 RMK A01 T00851083  RH  030%=      5-min Rain = 0
KST2 121952Z 10009KT 08/M08 A3031 RMK A01 T00831083  RH  030%=      5-min Rain = 0
KST2 121953Z 06008G13KT 08/M08 A3031 RMK A01 T00831083  RH  030%=      5-min Rain = 0
KST2 121954Z 06013KT 08/M08 A3031 RMK A01 T00821083  RH  030%=      5-min Rain = 0
KST2 121955Z 06009KT 08/M09 A3031 RMK A01 T00811085  RH  030%=      5-min Rain = 0
KST2 121956Z 05009KT 08/M09 A3031 RMK A01 T00781085  RH  030%=      5-min Rain = 0
KST2 121957Z 04009KT 08/M08 A3031 RMK A01 T00801082  RH  031%=      5-min Rain = 0
KST2 121958Z 04005KT 08/M08 A3031 RMK A01 T00811083  RH  030%=      5-min Rain = 0
KST2 121959Z 05007KT 08/M08 A3031 RMK A01 T00801084  RH  030%=      5-min Rain = 0
KST2 122000Z 05009KT 08/M08 A3031 RMK A01 T00821082  RH  031%=      5-min Rain = 0
KST2 122001Z 05013KT 09/M08 A3031 RMK A01 T00851080  RH  030%=      5-min Rain = 0
KST2 122002Z 05009KT 09/M08 A3031 RMK A01 T00851084  RH  029%=      5-min Rain = 0
KST2 122003Z 05009KT 08/M09 A3031 RMK A01 T00811085  RH  030%=      5-min Rain = 0
KST2 122004Z 06005KT 08/M08 A3031 RMK A01 T00801084  RH  030%=      5-min Rain = 0
KST2 122005Z 03007KT 08/M08 A303 RMK A01 T00791084  RH  030%=      5-min Rain = 0
KST2 122006Z 03006KT 08/M08 A303 RMK A01 T00811083  RH  030%=      5-min Rain = 0
KST2 122007Z 04007KT 08/M08 A303 RMK A01 T00831082  RH  030%=      5-min Rain = 0
KST2 122008Z 08012KT 08/M08 A303 RMK A01 T00831082  RH  030%=      5-min Rain = 0
KST2 122009Z 09010KT 09/M08 A303 RMK A01 T00851083  RH  030%=      5-min Rain = 0
KST2 122010Z 11006KT 09/M08 A303 RMK A01 T00851084  RH  029%=      5-min Rain = 0
KST2 122011Z 10005KT 09/M08 A303 RMK A01 T00851084  RH  029%=      5-min Rain = 0
KST2 122012Z 09003KT 08/M08 A303 RMK A01 T00841084  RH  029%=      5-min Rain = 0
KST2 122013Z 09007KT 08/M08 A303 RMK A01 T00841084  RH  030%=      5-min Rain = 0
KST2 122014Z 07007KT 09/M08 A303 RMK A01 T00851083  RH  030%=      5-min Rain = 0
KST2 122015Z 05009KT 09/M08 A303 RMK A01 T00881080  RH  030%=      5-min Rain = 0
KST2 122016Z 07012KT 09/M08 A303 RMK A01 T00921079  RH  029%=      5-min Rain = 0
KST2 122017Z 08008KT 09/M08 A303 RMK A01 T00911082  RH  029%=      5-min Rain = 0
KST2 122018Z 09006KT 09/M08 A303 RMK A01 T00901081  RH  029%=      5-min Rain = 0
KST2 122019Z 07009KT 09/M08 A303 RMK A01 T00891082  RH  029%=      5-min Rain = 0
KST2 122020Z 06007KT 09/M08 A303 RMK A01 T00891081  RH  029%=      5-min Rain = 0
KST2 122021Z 06009KT 09/M08 A3029 RMK A01 T00911080  RH  029%=      5-min Rain = 0
KST2 122022Z 06011KT 09/M08 A3029 RMK A01 T00911081  RH  029%=      5-min Rain = 0
KST2 122023Z 04009KT 09/M08 A3029 RMK A01 T00921080  RH  029%=      5-min Rain = 0
KST2 122024Z 04009KT 09/M08 A3029 RMK A01 T00921082  RH  029%=      5-min Rain = 0
KST2 122025Z 06009G15KT 09/M08 A3029 RMK A01 T00911081  RH  029%=      5-min Rain = 0
KST2 122026Z 11009G15KT 09/M08 A3029 RMK A01 T00931081  RH  029%=      5-min Rain = 0
KST2 122027Z 11006KT 09/M08 A3029 RMK A01 T00931082  RH  028%=      5-min Rain = 0
KST2 122028Z 10010KT 09/M08 A3029 RMK A01 T00931081  RH  028%=      5-min Rain = 0
KST2 122029Z 08009KT 10/M08 A3029 RMK A01 T00951079  RH  028%=      5-min Rain = 0
KST2 122030Z 06009KT 10/M08 A3029 RMK A01 T00971079  RH  028%=      5-min Rain = 0
KST2 122031Z 06008KT 10/M08 A3029 RMK A01 T00971081  RH  028%=      5-min Rain = 0
KST2 122032Z 08009KT 10/M08 A3029 RMK A01 T00961079  RH  028%=      5-min Rain = 0
KST2 122033Z 08006KT 10/M08 A3029 RMK A01 T00981080  RH  028%=      5-min Rain = 0
KST2 122034Z 09009KT 10/M08 A3029 RMK A01 T00971081  RH  028%=      5-min Rain = 0
KST2 122035Z 10011KT 10/M08 A3028 RMK A01 T00951081  RH  028%=      5-min Rain = 0
KST2 122036Z 12010KT 10/M08 A3028 RMK A01 T00961080  RH  028%=      5-min Rain = 0
KST2 122037Z 10010KT 10/M08 A3028 RMK A01 T00961080  RH  028%=      5-min Rain = 0
KST2 122038Z 08013KT 10/M08 A3029 RMK A01 T00981080  RH  028%=      5-min Rain = 0
KST2 122039Z 10011KT 10/M08 A3029 RMK A01 T00981081  RH  027%=      5-min Rain = 0
KST2 122040Z 08009KT 10/M08 A3029 RMK A01 T00971080  RH  028%=      5-min Rain = 0
KST2 122041Z 07010KT 10/M08 A3029 RMK A01 T00981081  RH  027%=      5-min Rain = 0
KST2 122042Z 08009KT 10/M08 A3029 RMK A01 T00961082  RH  028%=      5-min Rain = 0
KST2 122043Z 08013KT 10/M08 A3029 RMK A01 T00951082  RH  028%=      5-min Rain = 0
KST2 122044Z 09008KT 09/M08 A3028 RMK A01 T00941083  RH  028%=      5-min Rain = 0
KST2 122045Z 08008KT 09/M08 A3028 RMK A01 T00921083  RH  028%=      5-min Rain = 0
KST2 122046Z 11009KT 09/M08 A3028 RMK A01 T00941080  RH  028%=      5-min Rain = 0
KST2 122047Z 11012KT 10/M08 A3028 RMK A01 T01001075  RH  028%=      5-min Rain = 0
KST2 122048Z 08010KT 11/M08 A3028 RMK A01 T01061076  RH  027%=      5-min Rain = 0
KST2 122049Z 10013KT 10/M08 A3028 RMK A01 T01041080  RH  027%=      5-min Rain = 0
KST2 122050Z 09011KT 10/M08 A3028 RMK A01 T01031080  RH  027%=      5-min Rain = 0
KST2 122051Z 07010KT 10/M08 A3028 RMK A01 T00991082  RH  027%=      5-min Rain = 0
KST2 122052Z 09009KT 10/M08 A3028 RMK A01 T00961083  RH  027%=      5-min Rain = 0
KST2 122053Z 09008KT 10/M08 A3028 RMK A01 T00951082  RH  028%=      5-min Rain = 0
KST2 122054Z 09006KT 10/M08 A3028 RMK A01 T00961080  RH  028%=      5-min Rain = 0
KST2 122055Z 10007KT 10/M08 A3028 RMK A01 T00991079  RH  028%=      5-min Rain = 0
KST2 122056Z 09005KT 10/M08 A3028 RMK A01 T00971082  RH  027%=      5-min Rain = 0
KST2 122057Z 10008KT 10/M08 A3028 RMK A01 T00951082  RH  028%=      5-min Rain = 0
KST2 122058Z 07012KT 10/M08 A3028 RMK A01 T01001076  RH  028%=      5-min Rain = 0
KST2 122059Z 08008KT 10/M08 A3028 RMK A01 T01031079  RH  027%=      5-min Rain = 0
KST2 122100Z 07008G13KT 10/M08 A3028 RMK A01 T01011081  RH  027%=      5-min Rain = 0
KST2 122101Z 10012KT 10/M08 A3028 RMK A01 T01021079  RH  027%=      5-min Rain = 0
KST2 122102Z 11012KT 10/M08 A3028 RMK A01 T01041079  RH  027%=      5-min Rain = 0
KST2 122103Z 10010KT 10/M08 A3028 RMK A01 T01031079  RH  027%=      5-min Rain = 0
KST2 122104Z 09008KT 10/M08 A3028 RMK A01 T01021080  RH  027%=      5-min Rain = 0
KST2 122105Z 08010KT 10/M08 A3028 RMK A01 T00991082  RH  027%=      5-min Rain = 0
KST2 122106Z 08010KT 10/M08 A3028 RMK A01 T00981082  RH  027%=      5-min Rain = 0
KST2 122107Z 08008KT 10/M08 A3028 RMK A01 T00981081  RH  027%=      5-min Rain = 0
KST2 122108Z 09009KT 10/M08 A3028 RMK A01 T00971082  RH  027%=      5-min Rain = 0
KST2 122109Z 10009KT 10/M08 A3027 RMK A01 T00961082  RH  028%=      5-min Rain = 0
KST2 122110Z 10010KT 10/M08 A3027 RMK A01 T00961081  RH  028%=      5-min Rain = 0
KST2 122111Z 08009KT 10/M08 A3027 RMK A01 T00971079  RH  028%=      5-min Rain = 0
KST2 122112Z 07010KT 10/M08 A3027 RMK A01 T01001079  RH  027%=      5-min Rain = 0
KST2 122113Z 07009KT 10/M08 A3027 RMK A01 T00981082  RH  027%=      5-min Rain = 0
KST2 122114Z 06007KT 10/M08 A3027 RMK A01 T00971082  RH  027%=      5-min Rain = 0
KST2 122115Z 05007KT 10/M08 A3027 RMK A01 T00951082  RH  028%=      5-min Rain = 0
KST2 122116Z 06009KT 10/M08 A3027 RMK A01 T00961081  RH  028%=      5-min Rain = 0
KST2 122117Z 06010KT 10/M08 A3027 RMK A01 T00981081  RH  028%=      5-min Rain = 0
KST2 122118Z 08009KT 10/M08 A3027 RMK A01 T00981081  RH  027%=      5-min Rain = 0
KST2 122119Z 08011KT 10/M08 A3027 RMK A01 T01001080  RH  027%=      5-min Rain = 0
KST2 122120Z 09011KT 10/M08 A3027 RMK A01 T01001081  RH  027%=      5-min Rain = 0
KST2 122121Z 10010KT 10/M08 A3027 RMK A01 T01001081  RH  027%=      5-min Rain = 0
KST2 122122Z 12010KT 10/M08 A3027 RMK A01 T01021080  RH  027%=      5-min Rain = 0
KST2 122123Z 09013KT 10/M08 A3027 RMK A01 T01011081  RH  027%=      5-min Rain = 0
KST2 122124Z 09012KT 10/M08 A3027 RMK A01 T01001081  RH  027%=      5-min Rain = 0
KST2 122125Z 09011KT 10/M08 A3027 RMK A01 T01001081  RH  027%=      5-min Rain = 0
KST2 122126Z 09009KT 10/M08 A3027 RMK A01 T01001081  RH  027%=      5-min Rain = 0
KST2 122127Z 09009KT 10/M08 A3027 RMK A01 T01001081  RH  027%=      5-min Rain = 0
KST2 122128Z 09008KT 10/M08 A3027 RMK A01 T00981082  RH  027%=      5-min Rain = 0
KST2 122129Z 09006KT 10/M08 A3027 RMK A01 T00961082  RH  028%=      5-min Rain = 0
KST2 122130Z 11004KT 10/M08 A3027 RMK A01 T00951082  RH  028%=      5-min Rain = 0
KST2 122131Z 11007KT 10/M08 A3027 RMK A01 T00971080  RH  028%=      5-min Rain = 0
KST2 122132Z 11010KT 10/M08 A3027 RMK A01 T00981080  RH  028%=      5-min Rain = 0
KST2 122133Z 10011KT 10/M08 A3027 RMK A01 T00991081  RH  027%=      5-min Rain = 0
KST2 122134Z 12010KT 10/M08 A3027 RMK A01 T00991081  RH  027%=      5-min Rain = 0
KST2 122135Z 12010KT 10/M08 A3027 RMK A01 T00991081  RH  027%=      5-min Rain = 0
KST2 122136Z 12008KT 10/M08 A3027 RMK A01 T01001081  RH  027%=      5-min Rain = 0
KST2 122137Z 10010KT 10/M08 A3027 RMK A01 T00981082  RH  027%=      5-min Rain = 0
KST2 122138Z 11010KT 10/M08 A3027 RMK A01 T00981081  RH  027%=      5-min Rain = 0
KST2 122139Z 11010KT 10/M08 A3027 RMK A01 T00971082  RH  027%=      5-min Rain = 0
KST2 122140Z 11010KT 10/M08 A3027 RMK A01 T00981081  RH  027%=      5-min Rain = 0
KST2 122141Z 10011KT 10/M08 A3027 RMK A01 T00981081  RH  028%=      5-min Rain = 0
KST2 122142Z 09013KT 10/M08 A3027 RMK A01 T01001080  RH  027%=      5-min Rain = 0
KST2 122143Z 09010KT 10/M08 A3027 RMK A01 T01021079  RH  027%=      5-min Rain = 0
KST2 122144Z 08010KT 10/M08 A3027 RMK A01 T01011080  RH  027%=      5-min Rain = 0
KST2 122145Z 08007KT 10/M08 A3027 RMK A01 T01001080  RH  027%=      5-min Rain = 0
KST2 122146Z 09006KT 10/M08 A3027 RMK A01 T01001080  RH  027%=      5-min Rain = 0
KST2 122147Z 08009KT 10/M08 A3027 RMK A01 T00991081  RH  027%=      5-min Rain = 0
KST2 122148Z 09009KT 10/M08 A3027 RMK A01 T01011078  RH  028%=      5-min Rain = 0
KST2 122149Z 11010KT 10/M08 A3027 RMK A01 T01041078  RH  027%=      5-min Rain = 0
KST2 122150Z 12011KT 10/M08 A3026 RMK A01 T01041079  RH  027%=      5-min Rain = 0
KST2 122151Z 11010KT 10/M08 A3026 RMK A01 T01031079  RH  027%=      5-min Rain = 0
KST2 122152Z 10009KT 10/M08 A3026 RMK A01 T01041078  RH  027%=      5-min Rain = 0
KST2 122153Z 09009KT 10/M08 A3026 RMK A01 T01031080  RH  027%=      5-min Rain = 0
KST2 122154Z 09009KT 10/M08 A3026 RMK A01 T01021080  RH  027%=      5-min Rain = 0
KST2 122155Z 10009KT 10/M08 A3026 RMK A01 T01001081  RH  027%=      5-min Rain = 0
KST2 122156Z 11010KT 10/M08 A3026 RMK A01 T01001080  RH  027%=      5-min Rain = 0
KST2 122157Z 11010KT 10/M08 A3026 RMK A01 T01001080  RH  027%=      5-min Rain = 0
KST2 122158Z 11013KT 10/M08 A3026 RMK A01 T01001080  RH  027%=      5-min Rain = 0
KST2 122159Z 13012KT 10/M08 A3026 RMK A01 T01001080  RH  027%=      5-min Rain = 0
KST2 122200Z 12010KT 10/M08 A3026 RMK A01 T01001081  RH  027%=      5-min Rain = 0
KST2 122201Z 12009KT 10/M08 A3026 RMK A01 T00991081  RH  027%=      5-min Rain = 0
KST2 122202Z 11007KT 10/M08 A3026 RMK A01 T00991081  RH  027%=      5-min Rain = 0
KST2 122203Z 10007KT 10/M08 A3026 RMK A01 T00991081  RH  027%=      5-min Rain = 0
KST2 122204Z 11012KT 10/M08 A3026 RMK A01 T01001079  RH  028%=      5-min Rain = 0
KST2 122205Z 09013KT 10/M08 A3026 RMK A01 T01011079  RH  027%=      5-min Rain = 0
KST2 122206Z 08011KT 10/M08 A3026 RMK A01 T01021079  RH  027%=      5-min Rain = 0
KST2 122207Z 09009KT 10/M08 A3026 RMK A01 T01021079  RH  027%=      5-min Rain = 0
KST2 122208Z 09006KT 10/M08 A3026 RMK A01 T01031078  RH  027%=      5-min Rain = 0
KST2 122209Z 08008KT 10/M08 A3026 RMK A01 T01041078  RH  027%=      5-min Rain = 0
KST2 122210Z 08008KT 10/M08 A3026 RMK A01 T01021080  RH  027%=      5-min Rain = 0
KST2 122211Z 12011G16KT 10/M08 A3026 RMK A01 T01021078  RH  027%=      5-min Rain = 0
KST2 122212Z 13009KT 10/M08 A3026 RMK A01 T01041077  RH  027%=      5-min Rain = 0
KST2 122213Z 12007KT 10/M08 A3026 RMK A01 T01041078  RH  027%=      5-min Rain = 0
KST2 122214Z 09008KT 11/M08 A3026 RMK A01 T01061076  RH  027%=      5-min Rain = 0
KST2 122215Z 11010KT 11/M08 A3026 RMK A01 T01061078  RH  027%=      5-min Rain = 0
KST2 122216Z 11010KT 11/M08 A3026 RMK A01 T01061077  RH  027%=      5-min Rain = 0
KST2 122217Z 08010KT 11/M08 A3026 RMK A01 T01071077  RH  027%=      5-min Rain = 0
KST2 122218Z 07009KT 11/M08 A3026 RMK A01 T01071078  RH  026%=      5-min Rain = 0
KST2 122219Z 09007KT 11/M08 A3026 RMK A01 T01051079  RH  027%=      5-min Rain = 0
KST2 122220Z 08010KT 10/M08 A3026 RMK A01 T01041078  RH  027%=      5-min Rain = 0
KST2 122221Z 09011KT 11/M08 A3026 RMK A01 T01051078  RH  027%=      5-min Rain = 0
KST2 122222Z 09010KT 10/M08 A3026 RMK A01 T01031078  RH  027%=      5-min Rain = 0
KST2 122223Z 08011KT 10/M08 A3026 RMK A01 T01041078  RH  027%=      5-min Rain = 0
KST2 122224Z 09010KT 11/M08 A3026 RMK A01 T01051078  RH  027%=      5-min Rain = 0
KST2 122225Z 08011KT 11/M08 A3026 RMK A01 T01051078  RH  027%=      5-min Rain = 0
KST2 122226Z 08009KT 10/M08 A3026 RMK A01 T01041079  RH  027%=      5-min Rain = 0
KST2 122227Z 07007KT 10/M08 A3026 RMK A01 T01021079  RH  027%=      5-min Rain = 0
KST2 122228Z 08007KT 10/M08 A3026 RMK A01 T01041077  RH  027%=      5-min Rain = 0
KST2 122229Z 09009KT 11/M08 A3026 RMK A01 T01061076  RH  027%=      5-min Rain = 0
KST2 122230Z 09008KT 11/M08 A3026 RMK A01 T01061077  RH  027%=      5-min Rain = 0
KST2 122231Z 09007KT 11/M08 A3026 RMK A01 T01061077  RH  027%=      5-min Rain = 0
KST2 122232Z 10010KT 11/M08 A3026 RMK A01 T01061077  RH  027%=      5-min Rain = 0
KST2 122233Z 09011KT 11/M08 A3026 RMK A01 T01081076  RH  027%=      5-min Rain = 0
KST2 122234Z 10009KT 11/M08 A3026 RMK A01 T01071077  RH  027%=      5-min Rain = 0
KST2 122235Z 09009KT 11/M08 A3026 RMK A01 T01091076  RH  027%=      5-min Rain = 0
KST2 122236Z 10009KT 11/M08 A3025 RMK A01 T01081077  RH  026%=      5-min Rain = 0
KST2 122237Z 11011KT 11/M08 A3025 RMK A01 T01081077  RH  027%=      5-min Rain = 0
KST2 122238Z 13012KT 11/M08 A3025 RMK A01 T01101075  RH  027%=      5-min Rain = 0
KST2 122239Z 13012KT 11/M08 A3025 RMK A01 T01101076  RH  026%=      5-min Rain = 0
KST2 122240Z 12012KT 11/M08 A3025 RMK A01 T01101076  RH  026%=      5-min Rain = 0
KST2 122241Z 13014KT 11/M08 A3025 RMK A01 T01081077  RH  027%=      5-min Rain = 0
KST2 122242Z 12013KT 11/M08 A3026 RMK A01 T01061077  RH  027%=      5-min Rain = 0
KST2 122243Z 12011KT 11/M08 A3026 RMK A01 T01061077  RH  027%=      5-min Rain = 0
KST2 122244Z 13010KT 11/M08 A3026 RMK A01 T01061077  RH  027%=      5-min Rain = 0
KST2 122245Z 13009KT 11/M08 A3026 RMK A01 T01051077  RH  027%=      5-min Rain = 0
KST2 122246Z 12010KT 11/M08 A3026 RMK A01 T01051077  RH  027%=      5-min Rain = 0
KST2 122247Z 12011KT 11/M08 A3026 RMK A01 T01071075  RH  027%=      5-min Rain = 0
KST2 122248Z 12012KT 11/M08 A3026 RMK A01 T01071076  RH  027%=      5-min Rain = 0
KST2 122249Z 12010KT 11/M08 A3026 RMK A01 T01061077  RH  027%=      5-min Rain = 0
KST2 122250Z 13012KT 11/M08 A3026 RMK A01 T01051077  RH  027%=      5-min Rain = 0
KST2 122251Z 13012KT 11/M08 A3026 RMK A01 T01051077  RH  027%=      5-min Rain = 0
KST2 122252Z 13010KT 11/M08 A3026 RMK A01 T01051076  RH  027%=      5-min Rain = 0
KST2 122253Z 13009KT 11/M08 A3026 RMK A01 T01051076  RH  027%=      5-min Rain = 0
KST2 122254Z 11011KT 11/M08 A3026 RMK A01 T01051076  RH  027%=      5-min Rain = 0
KST2 122255Z 12011KT 11/M08 A3026 RMK A01 T01051076  RH  027%=      5-min Rain = 0
KST2 122256Z 12010KT 11/M08 A3026 RMK A01 T01051076  RH  027%=      5-min Rain = 0
KST2 122257Z 11009KT 11/M08 A3026 RMK A01 T01051076  RH  027%=      5-min Rain = 0
KST2 122258Z 12012KT 10/M08 A3026 RMK A01 T01041077  RH  027%=      5-min Rain = 0
KST2 122259Z 12012KT 10/M08 A3026 RMK A01 T01031077  RH  027%=      5-min Rain = 0
KST2 122300Z 12011KT 10/M08 A3026 RMK A01 T01031076  RH  028%=      5-min Rain = 0
KST2 122301Z 12011KT 10/M08 A3026 RMK A01 T01031077  RH  027%=      5-min Rain = 0
KST2 122302Z 12008KT 10/M08 A3026 RMK A01 T01031077  RH  027%=      5-min Rain = 0
KST2 122303Z 11008KT 10/M08 A3026 RMK A01 T01041076  RH  027%=      5-min Rain = 0
KST2 122304Z 11010KT 10/M08 A3026 RMK A01 T01031077  RH  027%=      5-min Rain = 0
KST2 122305Z 12011KT 10/M08 A3026 RMK A01 T01031076  RH  027%=      5-min Rain = 0
KST2 122306Z 11010KT 10/M08 A3026 RMK A01 T01031076  RH  027%=      5-min Rain = 0
KST2 122307Z 13011KT 10/M08 A3026 RMK A01 T01031076  RH  027%=      5-min Rain = 0
KST2 122308Z 13012KT 10/M08 A3026 RMK A01 T01031076  RH  028%=      5-min Rain = 0
KST2 122309Z 13013KT 10/M08 A3026 RMK A01 T01021077  RH  028%=      5-min Rain = 0
KST2 122310Z 12012KT 10/M08 A3026 RMK A01 T01021076  RH  028%=      5-min Rain = 0
KST2 122311Z 13011KT 10/M08 A3026 RMK A01 T01021077  RH  028%=      5-min Rain = 0
KST2 122312Z 14011KT 10/M08 A3026 RMK A01 T01021076  RH  028%=      5-min Rain = 0
KST2 122313Z 13010KT 10/M08 A3026 RMK A01 T01031076  RH  028%=      5-min Rain = 0
KST2 122314Z 14012KT 10/M08 A3026 RMK A01 T01021077  RH  028%=      5-min Rain = 0
KST2 122315Z 13012KT 10/M08 A3026 RMK A01 T01021076  RH  028%=      5-min Rain = 0
KST2 122316Z 12010KT 10/M08 A3026 RMK A01 T01021077  RH  028%=      5-min Rain = 0
KST2 122317Z 12011KT 10/M08 A3026 RMK A01 T01021077  RH  028%=      5-min Rain = 0
KST2 122318Z 11013KT 10/M08 A3026 RMK A01 T01031076  RH  028%=      5-min Rain = 0
KST2 122319Z 11010KT 10/M08 A3026 RMK A01 T01021076  RH  028%=      5-min Rain = 0
KST2 122320Z 12013KT 10/M08 A3026 RMK A01 T01021076  RH  028%=      5-min Rain = 0
KST2 122321Z 12011KT 10/M08 A3026 RMK A01 T01021077  RH  028%=      5-min Rain = 0
KST2 122322Z 12011KT 10/M08 A3026 RMK A01 T01021077  RH  028%=      5-min Rain = 0
KST2 122323Z 12012KT 10/M08 A3026 RMK A01 T01021077  RH  028%=      5-min Rain = 0
KST2 122324Z 12012KT 10/M08 A3026 RMK A01 T01021077  RH  028%=      5-min Rain = 0
KST2 122325Z 12011KT 10/M08 A3027 RMK A01 T01011077  RH  028%=      5-min Rain = 0
KST2 122326Z 11011KT 10/M08 A3027 RMK A01 T01001077  RH  028%=      5-min Rain = 0
KST2 122327Z 12010KT 10/M08 A3027 RMK A01 T01001077  RH  028%=      5-min Rain = 0
KST2 122328Z 12010KT 10/M08 A3027 RMK A01 T00991077  RH  028%=      5-min Rain = 0
KST2 122329Z 12012KT 10/M08 A3026 RMK A01 T00991077  RH  028%=      5-min Rain = 0
KST2 122330Z 12011KT 10/M08 A3026 RMK A01 T00991077  RH  028%=      5-min Rain = 0
KST2 122331Z 12012KT 10/M08 A3026 RMK A01 T01001077  RH  028%=      5-min Rain = 0
KST2 122332Z 11011KT 10/M08 A3026 RMK A01 T01001077  RH  028%=      5-min Rain = 0
KST2 122333Z 11013KT 10/M08 A3026 RMK A01 T01001077  RH  028%=      5-min Rain = 0
KST2 122334Z 12011KT 10/M08 A3026 RMK A01 T00991077  RH  028%=      5-min Rain = 0
KST2 122335Z 11010KT 10/M08 A3026 RMK A01 T00991077  RH  028%=      5-min Rain = 0
KST2 122336Z 11009KT 10/M08 A3026 RMK A01 T00981077  RH  028%=      5-min Rain = 0
KST2 122337Z 12011KT 10/M08 A3026 RMK A01 T00981077  RH  028%=      5-min Rain = 0
KST2 122338Z 11012KT 10/M08 A3026 RMK A01 T00981077  RH  028%=      5-min Rain = 0
KST2 122339Z 11011KT 10/M08 A3026 RMK A01 T00981077  RH  028%=      5-min Rain = 0
KST2 122340Z 11012KT 10/M08 A3026 RMK A01 T00981077  RH  028%=      5-min Rain = 0
KST2 122341Z 11011KT 10/M08 A3026 RMK A01 T00981078  RH  028%=      5-min Rain = 0
KST2 122342Z 11010KT 10/M08 A3026 RMK A01 T00991078  RH  028%=      5-min Rain = 0
KST2 122343Z 12009KT 10/M08 A3026 RMK A01 T00991078  RH  028%=      5-min Rain = 0
KST2 122344Z 12009KT 10/M08 A3026 RMK A01 T00991078  RH  028%=      5-min Rain = 0
KST2 122345Z 12011KT 10/M08 A3026 RMK A01 T00991077  RH  028%=      5-min Rain = 0
KST2 122346Z 12010KT 10/M08 A3026 RMK A01 T00981078  RH  028%=      5-min Rain = 0
KST2 122347Z 12009KT 10/M08 A3026 RMK A01 T00971077  RH  028%=      5-min Rain = 0
KST2 122348Z 12009KT 10/M08 A3027 RMK A01 T00971078  RH  028%=      5-min Rain = 0
KST2 122349Z 12009KT 10/M08 A3027 RMK A01 T00971078  RH  028%=      5-min Rain = 0
KST2 122350Z 11008KT 10/M08 A3027 RMK A01 T00971078  RH  028%=      5-min Rain = 0
KST2 122351Z 12009KT 10/M08 A3027 RMK A01 T00971078  RH  028%=      5-min Rain = 0
KST2 122352Z 12008KT 10/M08 A3027 RMK A01 T00961078  RH  028%=      5-min Rain = 0
KST2 122353Z 12010KT 10/M08 A3027 RMK A01 T00961079  RH  028%=      5-min Rain = 0
KST2 122354Z 11009KT 10/M08 A3027 RMK A01 T00961079  RH  028%=      5-min Rain = 0
KST2 122355Z 12009KT 10/M08 A3027 RMK A01 T00961078  RH  029%=      5-min Rain = 0
KST2 122356Z 12008KT 10/M08 A3027 RMK A01 T00951078  RH  029%=      5-min Rain = 0
KST2 122357Z 11009KT 10/M08 A3026 RMK A01 T00951079  RH  028%=      5-min Rain = 0
KST2 122358Z 12009KT 10/M08 A3026 RMK A01 T00951078  RH  029%=      5-min Rain = 0
KST2 122359Z 11009KT 10/M08 A3026 RMK A01 T00951078  RH  029%=      5-min Rain = 0
KST2 130000Z 12009KT 09/M08 A3026 RMK A01 T00941079  RH  029%=      5-min Rain = 0
KST2 130001Z 11009KT 09/M08 A3026 RMK A01 T00941078  RH  029%=      5-min Rain = 0
KST2 130002Z 11009KT 09/M08 A3026 RMK A01 T00941079  RH  029%=      5-min Rain = 0
KST2 130003Z 11008KT 09/M08 A3026 RMK A01 T00931079  RH  029%=      5-min Rain = 0
KST2 130004Z 12008KT 09/M08 A3026 RMK A01 T00931078  RH  029%=      5-min Rain = 0
KST2 130005Z 12009KT 09/M08 A3026 RMK A01 T00921078  RH  029%=      5-min Rain = 0
KST2 130006Z 11009KT 09/M08 A3026 RMK A01 T00921079  RH  029%=      5-min Rain = 0
KST2 130007Z 11009KT 09/M08 A3026 RMK A01 T00921079  RH  029%=      5-min Rain = 0
KST2 130008Z 11009KT 09/M08 A3026 RMK A01 T00911079  RH  029%=      5-min Rain = 0
KST2 130009Z 11007KT 09/M08 A3026 RMK A01 T00911079  RH  029%=      5-min Rain = 0
KST2 130010Z 11008KT 09/M08 A3026 RMK A01 T00901080  RH  029%=      5-min Rain = 0
KST2 130011Z 11008KT 09/M08 A3026 RMK A01 T00901079  RH  029%=      5-min Rain = 0
KST2 130012Z 10008KT 09/M08 A3026 RMK A01 T00901079  RH  029%=      5-min Rain = 0
KST2 130013Z 10007KT 09/M08 A3026 RMK A01 T00891080  RH  029%=      5-min Rain = 0
KST2 130014Z 10007KT 09/M08 A3026 RMK A01 T00881081  RH  029%=      5-min Rain = 0
KST2 130015Z 10008KT 09/M08 A3026 RMK A01 T00881080  RH  030%=      5-min Rain = 0
KST2 130016Z 10008KT 09/M08 A3026 RMK A01 T00871079  RH  030%=      5-min Rain = 0
KST2 130017Z 10007KT 09/M08 A3026 RMK A01 T00881079  RH  030%=      5-min Rain = 0
KST2 130018Z 10007KT 09/M08 A3026 RMK A01 T00871080  RH  030%=      5-min Rain = 0
KST2 130019Z 10007KT 09/M08 A3026 RMK A01 T00861080  RH  030%=      5-min Rain = 0
KST2 130020Z 10007KT 09/M08 A3027 RMK A01 T00861080  RH  030%=      5-min Rain = 0
KST2 130021Z 10006KT 09/M08 A3027 RMK A01 T00851081  RH  030%=      5-min Rain = 0
KST2 130022Z 10007KT 09/M08 A3027 RMK A01 T00851081  RH  030%=      5-min Rain = 0
KST2 130023Z 10007KT 08/M08 A3027 RMK A01 T00841080  RH  030%=      5-min Rain = 0
KST2 130024Z 09007KT 08/M08 A3027 RMK A01 T00841080  RH  030%=      5-min Rain = 0
KST2 130025Z 09007KT 08/M08 A3027 RMK A01 T00841081  RH  030%=      5-min Rain = 0
KST2 130026Z 09007KT 08/M08 A3027 RMK A01 T00831082  RH  030%=      5-min Rain = 0
KST2 130027Z 09007KT 08/M08 A3027 RMK A01 T00811082  RH  030%=      5-min Rain = 0
KST2 130028Z 09007KT 08/M08 A3027 RMK A01 T00811082  RH  031%=      5-min Rain = 0
KST2 130029Z 09007KT 08/M08 A3027 RMK A01 T00811081  RH  031%=      5-min Rain = 0
KST2 130030Z 09007KT 08/M08 A3027 RMK A01 T00801081  RH  031%=      5-min Rain = 0
KST2 130031Z 09007KT 08/M08 A3027 RMK A01 T00801080  RH  031%=      5-min Rain = 0
KST2 130032Z 09007KT 08/M08 A3027 RMK A01 T00791081  RH  031%=      5-min Rain = 0
KST2 130033Z 09007KT 08/M08 A3027 RMK A01 T00791081  RH  031%=      5-min Rain = 0
KST2 130034Z 09007KT 08/M08 A3027 RMK A01 T00791081  RH  031%=      5-min Rain = 0
KST2 130035Z 09008KT 08/M08 A3027 RMK A01 T00781081  RH  031%=      5-min Rain = 0
KST2 130036Z 09008KT 08/M08 A3027 RMK A01 T00771081  RH  032%=      5-min Rain = 0
KST2 130037Z 09008KT 08/M08 A3027 RMK A01 T00771082  RH  031%=      5-min Rain = 0
KST2 130038Z 09007KT 08/M08 A3027 RMK A01 T00761083  RH  031%=      5-min Rain = 0
KST2 130039Z 09007KT 08/M08 A3027 RMK A01 T00761082  RH  032%=      5-min Rain = 0
KST2 130040Z 09008KT 08/M08 A3027 RMK A01 T00751081  RH  032%=      5-min Rain = 0
KST2 130041Z 09007KT 08/M08 A3027 RMK A01 T00751082  RH  032%=      5-min Rain = 0
KST2 130042Z 09007KT 07/M08 A3027 RMK A01 T00741083  RH  032%=      5-min Rain = 0
KST2 130043Z 09007KT 07/M08 A3027 RMK A01 T00741083  RH  032%=      5-min Rain = 0
KST2 130044Z 09007KT 07/M08 A3027 RMK A01 T00741083  RH  032%=      5-min Rain = 0
KST2 130045Z 09008KT 07/M08 A3027 RMK A01 T00741083  RH  032%=      5-min Rain = 0
KST2 130046Z 09007KT 07/M08 A3027 RMK A01 T00731083  RH  032%=      5-min Rain = 0
KST2 130047Z 09008KT 07/M08 A3027 RMK A01 T00731084  RH  032%=      5-min Rain = 0
KST2 130048Z 09008KT 07/M08 A3027 RMK A01 T00731082  RH  032%=      5-min Rain = 0
KST2 130049Z 09008KT 07/M08 A3027 RMK A01 T00731082  RH  032%=      5-min Rain = 0
KST2 130050Z 09008KT 07/M08 A3027 RMK A01 T00731082  RH  032%=      5-min Rain = 0
KST2 130051Z 09008KT 07/M08 A3027 RMK A01 T00721082  RH  032%=      5-min Rain = 0
KST2 130052Z 09007KT 07/M08 A3027 RMK A01 T00721081  RH  033%=      5-min Rain = 0
KST2 130053Z 09007KT 07/M08 A3027 RMK A01 T00721081  RH  033%=      5-min Rain = 0
KST2 130054Z 09007KT 07/M08 A3027 RMK A01 T00711081  RH  033%=      5-min Rain = 0
KST2 130055Z 09007KT 07/M08 A3027 RMK A01 T00711082  RH  033%=      5-min Rain = 0
KST2 130056Z 09007KT 07/M08 A3027 RMK A01 T00701082  RH  033%=      5-min Rain = 0
KST2 130057Z 09007KT 07/M08 A3027 RMK A01 T00691083  RH  033%=      5-min Rain = 0
KST2 130058Z 09007KT 07/M08 A3027 RMK A01 T00681083  RH  033%=      5-min Rain = 0
KST2 130059Z 09007KT 07/M08 A3027 RMK A01 T00671083  RH  033%=      5-min Rain = 0
KST2 130100Z 09007KT 07/M08 A3027 RMK A01 T00671083  RH  033%=      5-min Rain = 0
KST2 130101Z 09007KT 07/M08 A3027 RMK A01 T00661084  RH  033%=      5-min Rain = 0
KST2 130102Z 09007KT 07/M08 A3027 RMK A01 T00661083  RH  034%=      5-min Rain = 0
KST2 130103Z 09007KT 07/M08 A3027 RMK A01 T00651084  RH  034%=      5-min Rain = 0
KST2 130104Z 08007KT 06/M09 A3027 RMK A01 T00641085  RH  034%=      5-min Rain = 0
KST2 130105Z 08007KT 06/M09 A3027 RMK A01 T00641085  RH  034%=      5-min Rain = 0
KST2 130106Z 08007KT 06/M09 A3027 RMK A01 T00631085  RH  034%=      5-min Rain = 0
KST2 130107Z 08007KT 06/M09 A3027 RMK A01 T00631086  RH  034%=      5-min Rain = 0
KST2 130108Z 08007KT 06/M09 A3027 RMK A01 T00621087  RH  034%=      5-min Rain = 0
KST2 130109Z 08006KT 06/M09 A3027 RMK A01 T00611087  RH  034%=      5-min Rain = 0
KST2 130110Z 08007KT 06/M09 A3027 RMK A01 T00601088  RH  034%=      5-min Rain = 0
KST2 130111Z 08007KT 06/M09 A3027 RMK A01 T00591089  RH  034%=      5-min Rain = 0
KST2 130112Z 08007KT 06/M09 A3027 RMK A01 T00581089  RH  034%=      5-min Rain = 0
KST2 130113Z 08007KT 06/M09 A3027 RMK A01 T00581088  RH  034%=      5-min Rain = 0
KST2 130114Z 08007KT 06/M09 A3027 RMK A01 T00571088  RH  034%=      5-min Rain = 0
KST2 130115Z 08007KT 06/M09 A3027 RMK A01 T00571087  RH  035%=      5-min Rain = 0
KST2 130116Z 08007KT 06/M09 A3027 RMK A01 T00581087  RH  035%=      5-min Rain = 0
KST2 130117Z 08007KT 06/M09 A3027 RMK A01 T00581086  RH  035%=      5-min Rain = 0
KST2 130118Z 08007KT 06/M09 A3027 RMK A01 T00581086  RH  035%=      5-min Rain = 0
KST2 130119Z 08007KT 06/M09 A3027 RMK A01 T00581086  RH  035%=      5-min Rain = 0
KST2 130120Z 08007KT 06/M09 A3028 RMK A01 T00581086  RH  035%=      5-min Rain = 0
KST2 130121Z 08007KT 06/M09 A3028 RMK A01 T00571085  RH  035%=      5-min Rain = 0
KST2 130122Z 08007KT 06/M09 A3028 RMK A01 T00581085  RH  035%=      5-min Rain = 0
KST2 130123Z 07007KT 06/M08 A3028 RMK A01 T00581084  RH  035%=      5-min Rain = 0
KST2 130124Z 07007KT 06/M09 A3028 RMK A01 T00571085  RH  035%=      5-min Rain = 0
KST2 130125Z 07007KT 06/M09 A3028 RMK A01 T00571085  RH  035%=      5-min Rain = 0
KST2 130126Z 07007KT 06/M09 A3028 RMK A01 T00561085  RH  035%=      5-min Rain = 0
KST2 130127Z 07007KT 06/M08 A3028 RMK A01 T00561084  RH  036%=      5-min Rain = 0
KST2 130128Z 07007KT 06/M08 A3028 RMK A01 T00561083  RH  036%=      5-min Rain = 0
KST2 130129Z 07007KT 06/M08 A3028 RMK A01 T00571083  RH  036%=      5-min Rain = 0
KST2 130130Z 07007KT 06/M08 A3028 RMK A01 T00571082  RH  036%=      5-min Rain = 0
KST2 130131Z 07007KT 06/M08 A3028 RMK A01 T00571083  RH  036%=      5-min Rain = 0
KST2 130132Z 07007KT 06/M08 A3028 RMK A01 T00561083  RH  036%=      5-min Rain = 0
KST2 130133Z 07007KT 06/M08 A3028 RMK A01 T00561082  RH  036%=      5-min Rain = 0
KST2 130134Z 07007KT 06/M08 A3028 RMK A01 T00561083  RH  036%=      5-min Rain = 0
KST2 130135Z 07007KT 06/M08 A3028 RMK A01 T00551083  RH  036%=      5-min Rain = 0
KST2 130136Z 07007KT 06/M08 A3028 RMK A01 T00551083  RH  036%=      5-min Rain = 0
KST2 130137Z 07007KT 06/M08 A3028 RMK A01 T00551083  RH  036%=      5-min Rain = 0
KST2 130138Z 07007KT 05/M08 A3028 RMK A01 T00541083  RH  036%=      5-min Rain = 0
KST2 130139Z 07007KT 05/M08 A3028 RMK A01 T00541083  RH  036%=      5-min Rain = 0
KST2 130140Z 07007KT 05/M08 A3028 RMK A01 T00541083  RH  037%=      5-min Rain = 0
KST2 130141Z 07007KT 05/M08 A3028 RMK A01 T00541083  RH  037%=      5-min Rain = 0
KST2 130142Z 07007KT 05/M08 A3028 RMK A01 T00531083  RH  037%=      5-min Rain = 0
KST2 130143Z 07007KT 05/M08 A3028 RMK A01 T00531083  RH  037%=      5-min Rain = 0
KST2 130144Z 07007KT 05/M08 A3028 RMK A01 T00531083  RH  037%=      5-min Rain = 0
KST2 130145Z 07007KT 05/M08 A3028 RMK A01 T00531083  RH  037%=      5-min Rain = 0
KST2 130146Z 07007KT 05/M08 A3028 RMK A01 T00521083  RH  037%=      5-min Rain = 0
KST2 130147Z 07007KT 05/M08 A3029 RMK A01 T00531082  RH  037%=      5-min Rain = 0
KST2 130148Z 07007KT 05/M08 A3029 RMK A01 T00531082  RH  037%=      5-min Rain = 0
KST2 130149Z 07007KT 05/M08 A3029 RMK A01 T00521083  RH  037%=      5-min Rain = 0
KST2 130150Z 07007KT 05/M08 A3029 RMK A01 T00521083  RH  037%=      5-min Rain = 0
KST2 130151Z 07007KT 05/M08 A3029 RMK A01 T00521083  RH  037%=      5-min Rain = 0
KST2 130152Z 07007KT 05/M08 A3029 RMK A01 T00511083  RH  037%=      5-min Rain = 0
KST2 130153Z 07007KT 05/M08 A3029 RMK A01 T00511083  RH  037%=      5-min Rain = 0
KST2 130154Z 07007KT 05/M08 A3029 RMK A01 T00511083  RH  037%=      5-min Rain = 0
KST2 130155Z 07007KT 05/M08 A3029 RMK A01 T00511082  RH  038%=      5-min Rain = 0
KST2 130156Z 08007KT 05/M08 A3029 RMK A01 T00511081  RH  038%=      5-min Rain = 0
KST2 130157Z 08007KT 05/M08 A3029 RMK A01 T00501082  RH  038%=      5-min Rain = 0
KST2 130158Z 08007KT 05/M08 A3029 RMK A01 T00511081  RH  038%=      5-min Rain = 0
KST2 130159Z 08007KT 05/M08 A3029 RMK A01 T00511081  RH  038%=      5-min Rain = 0
KST2 130200Z 08007KT 05/M08 A3029 RMK A01 T00511081  RH  038%=      5-min Rain = 0
KST2 130201Z 08007KT 05/M08 A3029 RMK A01 T00501081  RH  038%=      5-min Rain = 0
KST2 130202Z 08007KT 05/M08 A3029 RMK A01 T00501082  RH  038%=      5-min Rain = 0
KST2 130203Z 08007KT 05/M08 A3029 RMK A01 T00491083  RH  038%=      5-min Rain = 0
KST2 130204Z 08007KT 05/M08 A3029 RMK A01 T00481083  RH  038%=      5-min Rain = 0
KST2 130205Z 08007KT 05/M08 A3029 RMK A01 T00471084  RH  038%=      5-min Rain = 0
KST2 130206Z 08007KT 05/M08 A3029 RMK A01 T00471084  RH  038%=      5-min Rain = 0
KST2 130207Z 08007KT 05/M08 A3029 RMK A01 T00461084  RH  038%=      5-min Rain = 0
KST2 130208Z 08007KT 05/M09 A3029 RMK A01 T00451085  RH  038%=      5-min Rain = 0
KST2 130209Z 08007KT 04/M09 A3029 RMK A01 T00441085  RH  038%=      5-min Rain = 0
KST2 130210Z 08007KT 04/M09 A3029 RMK A01 T00441085  RH  038%=      5-min Rain = 0
KST2 130211Z 08007KT 04/M09 A3029 RMK A01 T00431086  RH  038%=      5-min Rain = 0
KST2 130212Z 08007KT 04/M09 A3029 RMK A01 T00421087  RH  038%=      5-min Rain = 0
KST2 130213Z 08007KT 04/M09 A3029 RMK A01 T00421087  RH  039%=      5-min Rain = 0
KST2 130214Z 08007KT 04/M09 A3029 RMK A01 T00411087  RH  039%=      5-min Rain = 0
KST2 130215Z 08007KT 04/M09 A3029 RMK A01 T00401088  RH  039%=      5-min Rain = 0
KST2 130216Z 08007KT 04/M09 A3029 RMK A01 T00401088  RH  039%=      5-min Rain = 0
KST2 130217Z 08007KT 04/M09 A3029 RMK A01 T00391088  RH  039%=      5-min Rain = 0
KST2 130218Z 08007KT 04/M09 A3029 RMK A01 T00391088  RH  039%=      5-min Rain = 0
KST2 130219Z 08007KT 04/M09 A3029 RMK A01 T00391088  RH  039%=      5-min Rain = 0
KST2 130220Z 09008KT 04/M09 A3029 RMK A01 T00391087  RH  039%=      5-min Rain = 0
KST2 130221Z 09007KT 04/M09 A3029 RMK A01 T00381088  RH  039%=      5-min Rain = 0
KST2 130222Z 09008KT 04/M09 A3029 RMK A01 T00391087  RH  039%=      5-min Rain = 0
KST2 130223Z 09008KT 04/M09 A3029 RMK A01 T00381088  RH  039%=      5-min Rain = 0
KST2 130224Z 09008KT 04/M09 A3029 RMK A01 T00391087  RH  039%=      5-min Rain = 0
KST2 130225Z 09008KT 04/M09 A3029 RMK A01 T00391087  RH  040%=      5-min Rain = 0
KST2 130226Z 09008KT 04/M09 A3029 RMK A01 T00391087  RH  039%=      5-min Rain = 0
KST2 130227Z 09008KT 04/M09 A3029 RMK A01 T00391086  RH  040%=      5-min Rain = 0
KST2 130228Z 09008KT 04/M09 A3029 RMK A01 T00391085  RH  040%=      5-min Rain = 0
KST2 130229Z 09009KT 04/M08 A3029 RMK A01 T00391084  RH  040%=      5-min Rain = 0
KST2 130230Z 09009KT 04/M08 A3029 RMK A01 T00401084  RH  040%=      5-min Rain = 0
KST2 130231Z 09008KT 04/M08 A3029 RMK A01 T00401084  RH  040%=      5-min Rain = 0
KST2 130232Z 09008KT 04/M08 A3029 RMK A01 T00401084  RH  040%=      5-min Rain = 0
KST2 130233Z 09008KT 04/M08 A3029 RMK A01 T00391084  RH  040%=      5-min Rain = 0
KST2 130234Z 09008KT 04/M08 A3029 RMK A01 T00391084  RH  040%=      5-min Rain = 0
KST2 130235Z 09008KT 04/M08 A3029 RMK A01 T00391084  RH  040%=      5-min Rain = 0
KST2 130236Z 09008KT 04/M08 A3029 RMK A01 T00391084  RH  040%=      5-min Rain = 0
KST2 130237Z 10008KT 04/M09 A3029 RMK A01 T00391085  RH  040%=      5-min Rain = 0
KST2 130238Z 09008KT 04/M09 A3029 RMK A01 T00391085  RH  040%=      5-min Rain = 0
KST2 130239Z 09008KT 04/M08 A3029 RMK A01 T00391084  RH  040%=      5-min Rain = 0
KST2 130240Z 09009KT 04/M08 A3029 RMK A01 T00401083  RH  040%=      5-min Rain = 0
KST2 130241Z 09009KT 04/M08 A3029 RMK A01 T00401082  RH  041%=      5-min Rain = 0
KST2 130242Z 09009KT 04/M08 A3029 RMK A01 T00401080  RH  041%=      5-min Rain = 0
KST2 130243Z 09009KT 04/M08 A3029 RMK A01 T00411081  RH  041%=      5-min Rain = 0
KST2 130244Z 09009KT 04/M08 A303 RMK A01 T00411080  RH  041%=      5-min Rain = 0
KST2 130245Z 09009KT 04/M08 A303 RMK A01 T00411080  RH  041%=      5-min Rain = 0
KST2 130246Z 09008KT 04/M08 A303 RMK A01 T00411080  RH  041%=      5-min Rain = 0
KST2 130247Z 09009KT 04/M08 A303 RMK A01 T00411080  RH  041%=      5-min Rain = 0
KST2 130248Z 09009KT 04/M08 A303 RMK A01 T00401079  RH  041%=      5-min Rain = 0
KST2 130249Z 09009KT 04/M08 A303 RMK A01 T00411079  RH  041%=      5-min Rain = 0
KST2 130250Z 09009KT 04/M08 A303 RMK A01 T00411078  RH  042%=      5-min Rain = 0
KST2 130251Z 09010KT 04/M08 A303 RMK A01 T00411077  RH  042%=      5-min Rain = 0
KST2 130252Z 09009KT 04/M08 A303 RMK A01 T00411075  RH  042%=      5-min Rain = 0
KST2 130253Z 09009KT 04/M08 A303 RMK A01 T00421075  RH  042%=      5-min Rain = 0
KST2 130254Z 09009KT 04/M07 A303 RMK A01 T00421074  RH  043%=      5-min Rain = 0
KST2 130255Z 09009KT 04/M07 A303 RMK A01 T00421074  RH  043%=      5-min Rain = 0
KST2 130256Z 09009KT 04/M07 A303 RMK A01 T00421073  RH  043%=      5-min Rain = 0
KST2 130257Z 09009KT 04/M07 A3029 RMK A01 T00421073  RH  043%=      5-min Rain = 0
KST2 130258Z 09009KT 04/M07 A3029 RMK A01 T00421073  RH  043%=      5-min Rain = 0
KST2 130259Z 09009KT 04/M07 A3029 RMK A01 T00421073  RH  043%=      5-min Rain = 0
KST2 130300Z 09009KT 04/M07 A3029 RMK A01 T00411073  RH  043%=      5-min Rain = 0
KST2 130301Z 09009KT 04/M07 A3029 RMK A01 T00411073  RH  043%=      5-min Rain = 0
KST2 130302Z 09009KT 04/M07 A3029 RMK A01 T00411073  RH  043%=      5-min Rain = 0
KST2 130303Z 09009KT 04/M07 A3029 RMK A01 T00401074  RH  043%=      5-min Rain = 0
KST2 130304Z 08009KT 04/M07 A3029 RMK A01 T00401074  RH  043%=      5-min Rain = 0
KST2 130305Z 08008KT 04/M07 A3029 RMK A01 T00401073  RH  043%=      5-min Rain = 0
KST2 130306Z 09008KT 04/M07 A303 RMK A01 T00391074  RH  043%=      5-min Rain = 0
KST2 130307Z 08008KT 04/M07 A303 RMK A01 T00391074  RH  044%=      5-min Rain = 0
KST2 130308Z 08007KT 04/M07 A303 RMK A01 T00391073  RH  044%=      5-min Rain = 0
KST2 130309Z 08008KT 04/M07 A303 RMK A01 T00391072  RH  044%=      5-min Rain = 0
KST2 130310Z 08007KT 04/M07 A303 RMK A01 T00381073  RH  044%=      5-min Rain = 0
KST2 130311Z 08007KT 04/M07 A303 RMK A01 T00381074  RH  044%=      5-min Rain = 0
KST2 130312Z 08007KT 04/M07 A303 RMK A01 T00371073  RH  044%=      5-min Rain = 0
KST2 130313Z 08007KT 04/M07 A303 RMK A01 T00371073  RH  044%=      5-min Rain = 0
KST2 130314Z 09008KT 04/M07 A303 RMK A01 T00371073  RH  045%=      5-min Rain = 0
KST2 130315Z 08008KT 04/M07 A303 RMK A01 T00371072  RH  045%=      5-min Rain = 0
KST2 130316Z 09007KT 04/M07 A303 RMK A01 T00371072  RH  045%=      5-min Rain = 0
KST2 130317Z 09007KT 04/M07 A303 RMK A01 T00371071  RH  045%=      5-min Rain = 0
KST2 130318Z 09008KT 04/M07 A303 RMK A01 T00371071  RH  045%=      5-min Rain = 0
KST2 130319Z 09008KT 04/M07 A303 RMK A01 T00371071  RH  045%=      5-min Rain = 0
KST2 130320Z 09007KT 04/M07 A303 RMK A01 T00371071  RH  045%=      5-min Rain = 0
KST2 130321Z 09008KT 04/M07 A303 RMK A01 T00371071  RH  045%=      5-min Rain = 0
KST2 130322Z 09007KT 04/M07 A303 RMK A01 T00371070  RH  046%=      5-min Rain = 0
KST2 130323Z 09007KT 04/M07 A303 RMK A01 T00371070  RH  046%=      5-min Rain = 0
KST2 130324Z 09007KT 04/M07 A303 RMK A01 T00371070  RH  046%=      5-min Rain = 0
KST2 130325Z 09007KT 04/M07 A303 RMK A01 T00361070  RH  046%=      5-min Rain = 0
KST2 130326Z 09008KT 04/M07 A303 RMK A01 T00361070  RH  046%=      5-min Rain = 0
KST2 130327Z 09008KT 04/M07 A303 RMK A01 T00361070  RH  046%=      5-min Rain = 0
KST2 130328Z 09008KT 04/M07 A303 RMK A01 T00351070  RH  046%=      5-min Rain = 0
KST2 130329Z 09009KT 04/M07 A303 RMK A01 T00351069  RH  046%=      5-min Rain = 0
KST2 130330Z 10009KT 04/M07 A303 RMK A01 T00351069  RH  046%=      5-min Rain = 0
KST2 130331Z 10009KT 04/M07 A303 RMK A01 T00351069  RH  046%=      5-min Rain = 0
KST2 130332Z 10009KT 04/M07 A303 RMK A01 T00361068  RH  046%=      5-min Rain = 0
KST2 130333Z 10010KT 04/M07 A303 RMK A01 T00361066  RH  047%=      5-min Rain = 0
KST2 130334Z 10010KT 04/M07 A303 RMK A01 T00371065  RH  047%=      5-min Rain = 0
KST2 130335Z 10010KT 04/M06 A303 RMK A01 T00381063  RH  047%=      5-min Rain = 0
KST2 130336Z 10010KT 04/M06 A303 RMK A01 T00391062  RH  048%=      5-min Rain = 0
KST2 130337Z 10010KT 04/M06 A303 RMK A01 T00391063  RH  047%=      5-min Rain = 0
KST2 130338Z 10009KT 04/M06 A303 RMK A01 T00391063  RH  047%=      5-min Rain = 0
KST2 130339Z 10009KT 04/M06 A303 RMK A01 T00391063  RH  047%=      5-min Rain = 0
KST2 130340Z 10009KT 04/M06 A303 RMK A01 T00391063  RH  047%=      5-min Rain = 0
KST2 130341Z 10010KT 04/M06 A303 RMK A01 T00391063  RH  048%=      5-min Rain = 0
KST2 130342Z 10010KT 04/M06 A303 RMK A01 T00391061  RH  048%=      5-min Rain = 0
KST2 130343Z 10010KT 04/M06 A303 RMK A01 T00391060  RH  048%=      5-min Rain = 0
KST2 130344Z 10009KT 04/M06 A303 RMK A01 T00391060  RH  048%=      5-min Rain = 0
KST2 130345Z 10010KT 04/M06 A303 RMK A01 T00391060  RH  048%=      5-min Rain = 0
KST2 130346Z 10010KT 04/M06 A303 RMK A01 T00391060  RH  048%=      5-min Rain = 0
KST2 130347Z 10010KT 04/M06 A303 RMK A01 T00391058  RH  049%=      5-min Rain = 0
KST2 130348Z 10009KT 04/M06 A303 RMK A01 T00401058  RH  049%=      5-min Rain = 0
KST2 130349Z 10009KT 04/M06 A303 RMK A01 T00401058  RH  049%=      5-min Rain = 0
KST2 130350Z 09008KT 04/M06 A303 RMK A01 T00401059  RH  049%=      5-min Rain = 0
KST2 130351Z 09010KT 04/M06 A303 RMK A01 T00391058  RH  049%=      5-min Rain = 0
KST2 130352Z 09009KT 04/M06 A303 RMK A01 T00391056  RH  050%=      5-min Rain = 0
KST2 130353Z 09008KT 04/M06 A303 RMK A01 T00391058  RH  049%=      5-min Rain = 0
KST2 130354Z 09008KT 04/M06 A3031 RMK A01 T00381058  RH  049%=      5-min Rain = 0
KST2 130355Z 09008KT 04/M06 A3031 RMK A01 T00381058  RH  050%=      5-min Rain = 0
KST2 130356Z 09009KT 04/M06 A3031 RMK A01 T00381058  RH  050%=      5-min Rain = 0
KST2 130357Z 10008KT 04/M06 A3031 RMK A01 T00381057  RH  050%=      5-min Rain = 0
KST2 130358Z 10008KT 04/M06 A3031 RMK A01 T00381058  RH  050%=      5-min Rain = 0
KST2 130359Z 10010KT 04/M06 A3031 RMK A01 T00381056  RH  050%=      5-min Rain = 0
KST2 130400Z 10009KT 04/M05 A3031 RMK A01 T00391054  RH  051%=      5-min Rain = 0
KST2 130401Z 10009KT 04/M06 A3031 RMK A01 T00391055  RH  050%=      5-min Rain = 0
KST2 130402Z 10009KT 04/M06 A3031 RMK A01 T00391056  RH  050%=      5-min Rain = 0
KST2 130403Z 10009KT 04/M06 A3031 RMK A01 T00381056  RH  050%=      5-min Rain = 0
KST2 130404Z 10009KT 04/M06 A3031 RMK A01 T00381055  RH  050%=      5-min Rain = 0
KST2 130405Z 10009KT 04/M06 A3031 RMK A01 T00381055  RH  050%=      5-min Rain = 0
KST2 130406Z 10009KT 04/M06 A3031 RMK A01 T00381055  RH  051%=      5-min Rain = 0
KST2 130407Z 10010KT 04/M05 A3031 RMK A01 T00381054  RH  051%=      5-min Rain = 0
KST2 130408Z 10009KT 04/M05 A3031 RMK A01 T00381054  RH  051%=      5-min Rain = 0
KST2 130409Z 10010KT 04/M05 A3031 RMK A01 T00381054  RH  051%=      5-min Rain = 0
KST2 130410Z 10010KT 04/M05 A3031 RMK A01 T00381053  RH  052%=      5-min Rain = 0
KST2 130411Z 10010KT 04/M05 A3031 RMK A01 T00381052  RH  052%=      5-min Rain = 0
KST2 130412Z 10009KT 04/M05 A3031 RMK A01 T00381053  RH  052%=      5-min Rain = 0
KST2 130413Z 10011KT 04/M05 A3031 RMK A01 T00381053  RH  052%=      5-min Rain = 0
KST2 130414Z 11011KT 04/M05 A3031 RMK A01 T00371051  RH  053%=      5-min Rain = 0
KST2 130415Z 10010KT 04/M05 A3031 RMK A01 T00381050  RH  053%=      5-min Rain = 0
KST2 130416Z 11010KT 04/M05 A3031 RMK A01 T00381051  RH  052%=      5-min Rain = 0
KST2 130417Z 10010KT 04/M05 A3031 RMK A01 T00381051  RH  052%=      5-min Rain = 0
KST2 130418Z 11011KT 04/M05 A3031 RMK A01 T00371051  RH  053%=      5-min Rain = 0
KST2 130419Z 10010KT 04/M05 A3031 RMK A01 T00371049  RH  053%=      5-min Rain = 0
KST2 130420Z 11010KT 04/M05 A3031 RMK A01 T00381048  RH  053%=      5-min Rain = 0
KST2 130421Z 11010KT 04/M05 A3032 RMK A01 T00381050  RH  053%=      5-min Rain = 0
KST2 130422Z 10010KT 04/M05 A3032 RMK A01 T00371049  RH  053%=      5-min Rain = 0
KST2 130423Z 11011KT 04/M05 A3032 RMK A01 T00371048  RH  054%=      5-min Rain = 0
KST2 130424Z 10010KT 04/M05 A3032 RMK A01 T00371047  RH  054%=      5-min Rain = 0
KST2 130425Z 10010KT 04/M05 A3032 RMK A01 T00371047  RH  054%=      5-min Rain = 0
KST2 130426Z 10009KT 04/M05 A3032 RMK A01 T00381047  RH  054%=      5-min Rain = 0
KST2 130427Z 11009KT 04/M05 A3032 RMK A01 T00371049  RH  054%=      5-min Rain = 0
KST2 130428Z 11009KT 04/M05 A3032 RMK A01 T00361049  RH  054%=      5-min Rain = 0
KST2 130429Z 11010KT 04/M05 A3032 RMK A01 T00361047  RH  054%=      5-min Rain = 0
KST2 130430Z 11009KT 04/M05 A3032 RMK A01 T00361046  RH  055%=      5-min Rain = 0
KST2 130431Z 11009KT 04/M05 A3032 RMK A01 T00361047  RH  054%=      5-min Rain = 0
KST2 130432Z 11009KT 04/M05 A3032 RMK A01 T00361048  RH  054%=      5-min Rain = 0
KST2 130433Z 11009KT 04/M05 A3032 RMK A01 T00351048  RH  054%=      5-min Rain = 0
KST2 130434Z 11009KT 04/M05 A3032 RMK A01 T00351048  RH  055%=      5-min Rain = 0
KST2 130435Z 11010KT 04/M05 A3032 RMK A01 T00351046  RH  055%=      5-min Rain = 0
KST2 130436Z 11010KT 04/M05 A3032 RMK A01 T00351047  RH  055%=      5-min Rain = 0
KST2 130437Z 11009KT 04/M05 A3032 RMK A01 T00351045  RH  056%=      5-min Rain = 0
KST2 130438Z 11009KT 04/M05 A3032 RMK A01 T00351046  RH  055%=      5-min Rain = 0
KST2 130439Z 11008KT 04/M05 A3032 RMK A01 T00351047  RH  055%=      5-min Rain = 0
KST2 130440Z 11010KT 03/M05 A3032 RMK A01 T00341047  RH  055%=      5-min Rain = 0
KST2 130441Z 11009KT 03/M05 A3032 RMK A01 T00341046  RH  056%=      5-min Rain = 0
KST2 130442Z 11009KT 03/M05 A3032 RMK A01 T00341045  RH  056%=      5-min Rain = 0
KST2 130443Z 11010KT 03/M05 A3032 RMK A01 T00341045  RH  056%=      5-min Rain = 0
KST2 130444Z 12009KT 03/M05 A3032 RMK A01 T00341045  RH  056%=      5-min Rain = 0
KST2 130445Z 11009KT 03/M05 A3032 RMK A01 T00341046  RH  056%=      5-min Rain = 0
KST2 130446Z 11009KT 03/M05 A3032 RMK A01 T00331045  RH  056%=      5-min Rain = 0
KST2 130447Z 12008KT 03/M05 A3032 RMK A01 T00331047  RH  056%=      5-min Rain = 0
KST2 130448Z 11008KT 03/M05 A3032 RMK A01 T00331046  RH  056%=      5-min Rain = 0
KST2 130449Z 12007KT 03/M05 A3032 RMK A01 T00321047  RH  056%=      5-min Rain = 0
KST2 130450Z 12008KT 03/M05 A3032 RMK A01 T00321047  RH  056%=      5-min Rain = 0
KST2 130451Z 12008KT 03/M05 A3032 RMK A01 T00321046  RH  057%=      5-min Rain = 0
KST2 130452Z 12007KT 03/M05 A3032 RMK A01 T00321046  RH  057%=      5-min Rain = 0
KST2 130453Z 12007KT 03/M05 A3032 RMK A01 T00321046  RH  057%=      5-min Rain = 0
KST2 130454Z 12007KT 03/M05 A3033 RMK A01 T00311047  RH  057%=      5-min Rain = 0
KST2 130455Z 11007KT 03/M05 A3033 RMK A01 T00311046  RH  057%=      5-min Rain = 0
KST2 130456Z 12007KT 03/M05 A3033 RMK A01 T00311046  RH  057%=      5-min Rain = 0
KST2 130457Z 12007KT 03/M05 A3033 RMK A01 T00311047  RH  057%=      5-min Rain = 0
KST2 130458Z 11007KT 03/M05 A3033 RMK A01 T00311046  RH  057%=      5-min Rain = 0
KST2 130459Z 11007KT 03/M05 A3033 RMK A01 T00301048  RH  057%=      5-min Rain = 0
KST2 130500Z 11007KT 03/M05 A3032 RMK A01 T00291048  RH  057%=      5-min Rain = 0
KST2 130501Z 11008KT 03/M05 A3033 RMK A01 T00291047  RH  057%=      5-min Rain = 0
KST2 130502Z 11007KT 03/M05 A3033 RMK A01 T00281047  RH  058%=      5-min Rain = 0
KST2 130503Z 11007KT 03/M05 A3033 RMK A01 T00291047  RH  058%=      5-min Rain = 0
KST2 130504Z 11007KT 03/M05 A3033 RMK A01 T00281048  RH  057%=      5-min Rain = 0
KST2 130505Z 11007KT 03/M05 A3033 RMK A01 T00281047  RH  058%=      5-min Rain = 0
KST2 130506Z 11007KT 03/M05 A3033 RMK A01 T00281048  RH  058%=      5-min Rain = 0
KST2 130507Z 11007KT 03/M05 A3033 RMK A01 T00271049  RH  058%=      5-min Rain = 0
KST2 130508Z 11007KT 03/M05 A3033 RMK A01 T00271048  RH  058%=      5-min Rain = 0
KST2 130509Z 11007KT 03/M05 A3033 RMK A01 T00271048  RH  058%=      5-min Rain = 0
KST2 130510Z 11007KT 03/M05 A3033 RMK A01 T00261049  RH  058%=      5-min Rain = 0
KST2 130511Z 11007KT 03/M05 A3033 RMK A01 T00261048  RH  058%=      5-min Rain = 0
KST2 130512Z 11007KT 03/M05 A3033 RMK A01 T00261048  RH  058%=      5-min Rain = 0
KST2 130513Z 11007KT 03/M05 A3033 RMK A01 T00261048  RH  058%=      5-min Rain = 0
KST2 130514Z 11006KT 03/M05 A3033 RMK A01 T00261048  RH  058%=      5-min Rain = 0
KST2 130515Z 11006KT 03/M05 A3033 RMK A01 T00251048  RH  058%=      5-min Rain = 0
KST2 130516Z 11006KT 03/M05 A3033 RMK A01 T00251048  RH  059%=      5-min Rain = 0
KST2 130517Z 11006KT 03/M05 A3033 RMK A01 T00251048  RH  059%=      5-min Rain = 0
KST2 130518Z 11006KT 02/M05 A3033 RMK A01 T00241049  RH  058%=      5-min Rain = 0
KST2 130519Z 11006KT 02/M05 A3033 RMK A01 T00241048  RH  059%=      5-min Rain = 0
KST2 130520Z 11006KT 02/M05 A3033 RMK A01 T00241048  RH  059%=      5-min Rain = 0
KST2 130521Z 11006KT 02/M05 A3033 RMK A01 T00231049  RH  059%=      5-min Rain = 0
KST2 130522Z 11006KT 02/M05 A3033 RMK A01 T00231049  RH  059%=      5-min Rain = 0
KST2 130523Z 11006KT 02/M05 A3033 RMK A01 T00231049  RH  059%=      5-min Rain = 0
KST2 130524Z 11007KT 02/M05 A3033 RMK A01 T00221050  RH  059%=      5-min Rain = 0
KST2 130525Z 11007KT 02/M05 A3033 RMK A01 T00221048  RH  060%=      5-min Rain = 0
KST2 130526Z 11006KT 02/M05 A3033 RMK A01 T00221048  RH  060%=      5-min Rain = 0
KST2 130527Z 11006KT 02/M05 A3033 RMK A01 T00221049  RH  059%=      5-min Rain = 0
KST2 130528Z 11007KT 02/M05 A3033 RMK A01 T00221050  RH  059%=      5-min Rain = 0
KST2 130529Z 12007KT 02/M05 A3033 RMK A01 T00221049  RH  059%=      5-min Rain = 0
KST2 130530Z 12007KT 02/M05 A3033 RMK A01 T00211049  RH  060%=      5-min Rain = 0
KST2 130531Z 12007KT 02/M05 A3033 RMK A01 T00211050  RH  059%=      5-min Rain = 0
KST2 130532Z 12006KT 02/M05 A3033 RMK A01 T00201051  RH  059%=      5-min Rain = 0
KST2 130533Z 12007KT 02/M05 A3033 RMK A01 T00201051  RH  059%=      5-min Rain = 0
KST2 130534Z 12006KT 02/M05 A3033 RMK A01 T00191052  RH  059%=      5-min Rain = 0
KST2 130535Z 12006KT 02/M05 A3033 RMK A01 T00191053  RH  059%=      5-min Rain = 0
KST2 130536Z 12006KT 02/M05 A3033 RMK A01 T00181053  RH  059%=      5-min Rain = 0
KST2 130537Z 12006KT 02/M05 A3033 RMK A01 T00181052  RH  059%=      5-min Rain = 0
KST2 130538Z 12006KT 02/M05 A3033 RMK A01 T00181053  RH  059%=      5-min Rain = 0
KST2 130539Z 12006KT 02/M05 A3034 RMK A01 T00171054  RH  059%=      5-min Rain = 0
KST2 130540Z 12006KT 02/M06 A3034 RMK A01 T00161055  RH  059%=      5-min Rain = 0
KST2 130541Z 12006KT 02/M06 A3033 RMK A01 T00151056  RH  059%=      5-min Rain = 0
KST2 130542Z 12006KT 02/M06 A3034 RMK A01 T00151055  RH  060%=      5-min Rain = 0
KST2 130543Z 12006KT 02/M05 A3034 RMK A01 T00151053  RH  060%=      5-min Rain = 0
KST2 130544Z 13006KT 02/M05 A3034 RMK A01 T00151052  RH  061%=      5-min Rain = 0
KST2 130545Z 13005KT 02/M05 A3034 RMK A01 T00161051  RH  061%=      5-min Rain = 0
KST2 130546Z 13006KT 02/M05 A3034 RMK A01 T00161051  RH  061%=      5-min Rain = 0
KST2 130547Z 13006KT 02/M05 A3034 RMK A01 T00161051  RH  061%=      5-min Rain = 0
KST2 130548Z 13006KT 02/M05 A3034 RMK A01 T00161052  RH  061%=      5-min Rain = 0
KST2 130549Z 12006KT 02/M05 A3034 RMK A01 T00161051  RH  061%=      5-min Rain = 0
KST2 130550Z 13007KT 02/M05 A3034 RMK A01 T00161051  RH  061%=      5-min Rain = 0
KST2 130551Z 13008KT 02/M05 A3034 RMK A01 T00171047  RH  063%=      5-min Rain = 0
KST2 130552Z 13007KT 02/M05 A3034 RMK A01 T00181046  RH  063%=      5-min Rain = 0
KST2 130553Z 13008KT 02/M05 A3034 RMK A01 T00191046  RH  062%=      5-min Rain = 0
KST2 130554Z 13009KT 02/M05 A3034 RMK A01 T00181046  RH  062%=      5-min Rain = 0
KST2 130555Z 13009KT 02/M04 A3034 RMK A01 T00191044  RH  063%=      5-min Rain = 0
KST2 130556Z 13008KT 02/M04 A3034 RMK A01 T00201043  RH  063%=      5-min Rain = 0
KST2 130557Z 13009KT 02/M04 A3034 RMK A01 T00201044  RH  063%=      5-min Rain = 0
KST2 130558Z 13008KT 02/M04 A3034 RMK A01 T00201044  RH  063%=      5-min Rain = 0
KST2 130559Z 13008KT 02/M04 A3034 RMK A01 T00201044  RH  062%=      5-min Rain = 0

Page generated in 0.0553 seconds.